[[{"header":{"parameterUnit":"m.s-1","parameterCategory":1,"la1":30.6,"la2":29.2853,"lo1":-89.7004,"lo2":-87.6739,"dy":0.0162,"dx":0.0183,"nx":112,"ny":82,"refTime":"2024-08-25T12:00:00:Z","depth":0,"parameterNumber":2,"parameterNumberName":"U-component_of_WINDS"},"data":[0.0,0.0,0.0,0.0,0.0,0.0,0.0,0.0,0.0,0.0,0.0,0.0,0.0,0.0,0.0,0.0,0.0,0.0,0.0,0.0,0.0,0.0,0.0,0.0,0.0,0.0,0.0,0.0,0.0,0.0,0.0,0.0,0.0,0.0,0.0,0.0,0.0,0.0,0.0,0.0,0.0,0.0,0.0,0.0,0.0,0.0,0.0,0.0,0.0,0.0,0.0,0.0,0.0,0.0,0.0,0.0,0.0,0.0,0.0,0.0,0.0,0.0,0.0,0.0,0.0,0.0,0.0,0.0,0.0,0.0,0.0,0.0,0.0,0.0,0.0,0.0,0.0,0.0,0.0,0.0,0.0,0.0,0.0,0.0,0.0,0.0,0.0,0.0,0.0,0.0,0.7767,0.8898,0.9594,1.0097,1.0371,0.9767,0.8984,0.8081,0.0,0.0,0.0,0.0,0.0,0.0,0.0,0.0,0.0,0.0,0.0,0.0,0.0,0.0,0.0,0.0,0.0,0.0,0.0,0.0,0.0,0.0,0.0,0.0,0.0,0.0,0.0,0.0,0.0,0.0,0.0,0.0,0.0,0.0,0.0,0.0,0.0,0.0,0.0,0.0,0.0,0.0,0.0,0.0,0.0,0.0,0.0,0.0,0.0,0.0,0.0,0.0,0.0,0.0,0.0,0.0,0.0,0.0,0.0,0.0,0.0,0.0,0.0,0.0,0.0,0.0,0.0,0.0,0.0,0.0,0.0,0.0,0.0,0.0,0.0,0.0,0.0,0.0,0.0,0.0,0.0,0.0,0.0,0.0,0.0,0.0,0.0,0.0,0.0,0.0,0.0,0.0,0.0,0.0,0.0,0.0,0.0,0.0,0.0,0.0,0.0,0.0,0.0,0.0,0.7939,0.8978,0.9832,1.0334,1.0396,0.9683,0.9049,0.8612,0.0,0.0,0.0,0.0,0.0,0.0,0.0,0.0,0.0,0.0,0.0,0.0,0.0,0.0,0.0,0.0,0.0,0.0,0.0,0.0,0.0,0.0,0.0,0.0,0.0,0.0,0.0,0.0,0.0,0.0,0.0,0.0,0.0,0.0,0.0,0.0,0.0,0.0,0.0,0.0,0.0,0.0,0.0,0.0,0.0,0.0,0.0,0.0,0.0,0.0,0.0,0.0,0.0,0.0,0.0,0.0,0.0,0.0,0.0,0.0,0.0,0.0,0.0,0.0,0.0,0.0,0.0,0.0,0.0,0.0,0.0,0.0,0.0,0.0,0.0,0.0,0.0,0.0,0.0,0.0,0.0,0.0,0.0,0.0,0.0,0.0,0.0,0.0,0.0,0.0,0.0,0.0,0.0,0.0,0.0,0.0,0.0,0.0,0.0,0.0,0.0,0.0,0.0,0.8154,0.8563,0.9677,1.0165,1.0396,1.0396,1.006,0.9513,0.8698,0.7281,0.0,0.0,0.0,0.0,0.0,0.0,0.0,0.0,0.0,0.0,0.0,0.0,0.0,0.0,0.0,0.0,0.0,0.0,0.0,0.0,0.0,0.0,0.0,0.0,0.0,0.0,0.0,0.0,0.0,0.0,0.0,0.0,0.0,0.0,0.0,0.0,0.0,0.0,0.0,0.0,0.0,0.0,0.0,0.0,0.0,0.0,0.0,0.0,0.0,0.0,0.0,0.0,0.0,0.0,0.0,0.0,0.0,0.0,0.0,0.0,0.0,0.0,0.0,0.0,0.0,0.0,0.0,0.0,0.0,0.0,0.0,0.0,0.0,0.0,0.0,0.0,0.0,0.0,0.0,0.0,0.0,0.0,0.0,0.0,0.0,0.0,0.0,0.0,0.0,0.0,0.0,0.0,0.0,0.0,0.0,0.0,0.0,0.0,0.0,0.0,0.0,0.0,0.8926,0.9039,1.0155,1.0347,1.0396,1.0396,1.0277,0.9786,0.8774,0.7366,0.0,0.0,0.0,0.0,0.0,0.0,0.0,0.0,0.0,0.0,0.0,0.0,0.0,0.0,0.0,0.0,0.0,0.0,0.0,0.0,0.0,0.0,0.0,0.0,0.0,0.0,0.0,0.0,0.0,0.0,0.0,0.0,0.0,0.0,0.0,0.0,0.0,0.0,0.0,0.0,0.0,0.0,0.0,0.0,0.0,0.0,0.0,0.0,0.0,0.0,0.0,0.0,0.0,0.0,0.0,0.0,0.0,0.0,0.0,0.0,0.0,0.0,0.0,0.0,0.0,0.0,0.0,0.0,0.0,0.0,0.0,0.0,0.0,0.0,0.0,0.0,0.0,0.0,0.0,0.0,0.0,0.0,0.0,0.0,0.0,0.0,0.0,0.0,0.0,0.0,0.0,0.0,0.0,0.0,0.0,0.0,0.0,0.0,0.0,0.0,0.0,0.0,0.8926,0.8941,0.9843,1.021,1.0396,1.0396,0.9945,0.9488,0.9093,0.7052,0.0,0.0,0.0,0.0,0.0,0.0,0.0,0.0,0.0,0.0,0.0,0.0,0.0,0.0,0.0,0.0,0.0,0.0,0.0,0.0,0.0,0.0,0.0,0.0,0.0,0.0,0.0,0.0,0.0,0.0,0.0,0.0,0.0,0.0,0.0,0.0,0.0,0.0,0.0,0.0,0.0,0.0,0.0,0.0,0.0,0.0,0.0,0.0,0.0,0.0,0.0,0.0,0.0,0.0,0.0,0.0,0.0,0.0,0.0,0.0,0.0,0.0,0.0,0.0,0.0,0.0,0.0,0.0,0.0,0.0,0.0,0.0,0.0,0.0,0.0,0.0,0.0,0.0,0.0,0.0,0.0,0.0,0.0,0.0,0.0,0.0,0.0,0.0,0.0,0.0,0.0,0.0,0.0,0.0,0.0,0.0,0.0,0.0,0.0,0.0,0.0,0.0,0.8515,0.8581,0.0,0.9855,1.0033,1.0072,0.9789,0.9413,0.9005,0.0,0.0,0.0,0.0,0.0,0.0,0.0,0.0,0.0,0.0,0.0,0.0,0.0,0.0,0.0,0.0,0.0,0.0,0.0,0.0,0.0,0.0,0.0,0.0,0.0,0.0,0.0,0.0,0.0,0.0,0.0,0.0,0.0,0.0,0.0,0.0,0.0,0.0,0.0,0.0,0.0,0.0,0.0,0.0,0.0,0.0,0.0,0.0,0.0,0.0,0.0,0.0,0.0,0.0,0.0,0.0,0.0,0.0,0.0,0.0,0.0,0.0,0.0,0.0,0.0,0.0,0.0,0.0,0.0,0.0,0.0,0.0,0.0,0.0,0.0,0.0,0.0,0.0,0.0,0.0,0.0,0.0,0.0,0.0,0.0,0.0,0.0,0.0,0.0,0.0,0.0,0.0,0.0,0.0,0.0,0.0,0.0,0.0,0.0,0.0,0.0,0.0,0.8263,0.8192,0.8331,0.0,0.9661,0.9855,0.9893,0.9467,0.9072,0.8826,0.0,0.0,0.0,0.0,0.0,0.0,0.0,0.0,0.0,0.0,0.0,0.0,0.0,0.0,0.0,0.0,0.0,0.0,0.0,0.0,0.0,0.0,0.0,0.0,0.0,0.0,0.0,0.0,0.0,0.0,0.0,0.0,0.0,0.0,0.0,0.0,0.0,0.0,0.0,0.0,0.0,0.0,0.0,0.0,0.0,0.0,0.0,0.0,0.0,0.0,0.0,0.0,0.0,0.0,0.0,0.0,0.0,0.0,0.0,0.0,0.0,0.0,0.0,0.0,0.0,0.0,0.0,0.0,0.0,0.0,0.0,0.0,0.0,0.0,0.0,0.0,0.0,0.0,0.0,0.0,0.0,0.0,0.0,0.0,0.0,0.0,0.0,0.0,0.0,0.0,0.0,0.0,0.0,0.0,0.0,0.0,0.0,0.0,0.0,0.0,0.0,0.0,0.8004,0.806,0.8274,0.9289,0.9698,0.9893,0.9893,0.8902,0.8382,0.0,0.0,0.0,0.0,0.0,0.0,0.0,0.0,0.0,0.0,0.0,0.0,0.0,0.0,0.0,0.0,0.0,0.0,0.0,0.0,0.0,0.0,0.0,0.0,0.0,0.0,0.0,0.0,0.0,0.0,0.0,0.0,0.0,0.0,0.0,0.0,0.0,0.0,0.0,0.0,0.0,0.0,0.0,0.0,0.0,0.0,0.0,0.0,0.0,0.0,0.0,0.0,0.0,0.0,0.0,0.0,0.0,0.0,0.0,0.0,0.0,0.0,0.0,0.0,0.0,0.0,0.0,0.0,0.0,0.0,0.0,0.0,0.0,0.0,0.0,0.0,0.0,0.0,0.0,0.0,0.0,0.0,0.0,0.0,0.0,0.0,0.0,0.0,0.0,0.0,0.0,0.0,0.0,0.0,0.0,0.0,0.0,0.0,0.0,0.0,0.0,0.0,0.0,0.7489,0.7586,0.7862,0.8878,0.9062,0.9237,0.9515,0.8346,0.7766,0.8155,0.0,0.0,0.0,0.0,0.0,0.0,0.0,0.0,0.0,0.0,0.0,0.0,0.0,0.0,0.0,0.0,0.0,0.0,0.0,0.0,0.0,0.0,0.0,0.0,0.0,0.0,0.0,0.0,0.0,0.0,0.0,0.0,0.0,0.0,0.0,0.0,0.0,0.0,0.0,0.0,0.0,0.0,0.0,0.0,0.0,0.0,0.0,0.0,0.0,0.0,0.0,0.0,0.0,0.0,0.0,0.0,0.0,0.0,0.0,0.0,0.0,0.0,0.0,0.0,0.0,0.0,0.0,0.0,0.0,0.0,0.0,0.0,0.0,0.0,0.0,0.0,0.0,0.0,0.0,0.0,0.0,0.0,0.0,0.0,0.0,0.0,0.0,0.0,0.0,0.0,0.0,0.0,0.0,0.0,0.0,0.0,0.0,0.0,0.0,0.0,0.0,0.0,0.7003,0.7199,0.7548,0.8508,0.872,0.8899,0.913,0.8189,0.7621,0.7721,0.0,0.0,0.0,0.0,0.0,0.0,0.0,0.0,0.0,0.0,0.0,0.0,0.0,0.0,0.0,0.0,0.0,0.0,0.0,0.0,0.0,0.0,0.0,0.0,0.0,0.0,0.0,0.0,0.0,0.0,0.0,0.0,0.0,0.0,0.0,0.0,0.0,0.0,0.0,0.0,0.0,0.0,0.0,0.0,0.0,0.0,0.0,0.0,0.0,0.0,0.0,0.0,0.0,0.0,0.0,0.0,0.0,0.0,0.0,0.0,0.0,0.0,0.0,0.0,0.0,0.0,0.0,0.0,0.0,0.0,0.0,0.0,0.0,0.0,0.0,0.0,0.0,0.0,0.0,0.0,0.0,0.0,0.0,0.0,0.0,0.0,0.0,0.0,0.0,0.0,0.0,0.0,0.0,0.0,0.0,0.0,0.0,0.0,0.0,0.0,0.0,0.0,0.6572,0.6911,0.7327,0.8154,0.8551,0.8748,0.8748,0.8238,0.7728,0.7291,0.0,0.0,0.0,0.0,0.0,0.0,0.0,0.0,0.0,0.0,0.0,0.0,0.0,0.0,0.0,0.0,0.0,0.0,0.0,0.0,0.0,0.0,0.0,0.0,0.0,0.0,0.0,0.0,0.0,0.0,0.0,0.0,0.0,0.0,0.0,0.0,0.0,0.0,0.0,0.0,0.0,0.0,0.0,0.0,0.0,0.0,0.0,0.0,0.0,0.0,0.0,0.0,0.0,0.0,0.0,0.0,0.0,0.0,0.0,0.0,0.7627,0.7049,0.0,0.0,0.0,0.0,0.0,0.0,0.0,0.0,0.0,0.0,0.0,0.0,0.0,0.0,0.0,0.0,0.0,0.0,0.0,0.0,0.0,0.0,0.0,0.0,0.0,0.0,0.0,0.0,0.0,0.0,0.0,0.0,0.0,0.0,0.0,0.0,0.0,0.0,0.0,0.0,0.6446,0.6853,0.7207,0.7766,0.817,0.8407,0.8407,0.7722,0.7179,0.6926,0.5951,0.0,0.0,0.0,0.0,0.0,0.0,0.0,0.0,0.0,0.0,0.0,0.0,0.0,0.0,0.0,0.0,0.0,0.0,0.0,0.0,0.0,0.0,0.0,0.0,0.0,0.0,0.0,0.0,0.0,0.0,0.0,0.0,0.0,0.0,0.0,0.0,0.0,0.0,0.0,0.0,0.0,0.0,0.0,0.0,0.0,0.0,0.0,0.0,0.0,0.0,0.0,0.0,0.0,0.0,0.0,0.0,0.0,0.0,0.0,0.918,0.8643,0.0,0.0,0.0,0.0,0.0,0.0,0.0,0.0,0.0,0.0,0.0,0.0,0.0,0.0,0.0,0.0,0.0,0.0,0.0,0.0,0.0,0.0,0.0,0.0,0.0,0.0,0.0,0.0,0.0,0.0,0.0,0.0,0.0,0.0,0.0,0.0,0.0,0.0,0.0,0.0,0.6356,0.6652,0.7002,0.7627,0.7879,0.7922,0.7744,0.751,0.718,0.6684,0.6127,0.0,0.0,0.0,0.0,0.0,0.0,0.0,0.0,0.0,0.0,0.0,0.0,0.0,0.0,0.0,0.0,0.0,0.0,0.0,0.0,0.0,0.0,0.0,0.0,0.0,0.0,0.0,0.0,0.0,0.0,0.0,0.0,0.0,0.0,0.0,0.0,0.0,0.0,0.0,0.0,0.0,0.0,0.0,0.0,0.0,0.0,0.0,0.0,0.0,0.0,0.0,0.0,0.0,1.095,1.0861,1.1491,1.0966,1.091,1.1254,1.1114,1.0744,1.0218,1.0018,0.0,0.0,0.0,0.0,0.0,0.0,0.0,0.0,0.0,0.0,0.0,0.0,0.0,0.0,0.0,0.0,0.0,0.0,0.0,0.0,0.0,0.0,0.9579,0.9797,0.9732,0.9611,0.9677,0.0,0.0,0.0,0.0,0.0,0.0,0.0,0.0,0.0,0.0,0.0,0.6156,0.6345,0.6652,0.7325,0.7451,0.7359,0.7029,0.7299,0.7205,0.6543,0.6441,0.6092,0.0,0.0,0.0,0.0,0.0,0.0,0.0,0.0,0.0,0.0,0.0,0.0,0.0,0.0,0.0,0.0,0.0,0.0,0.0,0.0,0.0,0.0,0.0,0.0,0.0,0.0,0.0,0.0,0.0,0.0,0.0,0.0,0.5501,0.5436,0.0,0.0,0.0,0.0,0.0,0.0,0.0,0.0,0.0,0.0,0.0,0.0,0.0,0.9422,1.0116,1.1105,1.1908,1.2485,1.2511,1.2724,1.3114,1.3476,1.342,1.307,1.3499,0.0,1.0734,1.1156,0.0,0.0,0.0,0.0,0.0,0.0,0.0,0.0,0.0,0.0,0.0,0.0,0.0,0.0,0.0,0.0,0.0,0.0,0.0,0.0,0.0,0.0,1.0024,1.0044,1.004,1.0022,1.0023,0.9048,0.8028,0.7591,0.684,0.6018,0.0,0.0,0.0,0.0,0.0,0.0,0.5624,0.5863,0.6021,0.6129,0.6442,0.6639,0.6594,0.6624,0.6611,0.6502,0.6498,0.6405,0.6236,0.5506,0.0,0.0,0.0,0.0,0.0,0.0,0.0,0.0,0.0,0.0,0.0,0.0,0.0,0.0,0.0,0.0,0.0,0.0,0.0,0.0,0.0,0.0,0.0,0.0,0.0,0.0,0.0,0.0,0.0,0.628,0.6647,0.6287,0.6643,0.6627,0.0,0.0,0.0,0.0,0.0,0.0,0.0,0.0,0.0,0.9139,0.9205,0.9889,1.1234,1.2139,1.2909,1.3572,1.3615,1.3845,1.4232,1.4143,1.4136,1.428,1.4726,1.4251,1.3069,1.2429,1.1832,1.127,0.0,0.0,0.0,0.0,1.0879,1.0843,1.1436,1.1389,1.1109,1.1349,0.0,0.0,0.0,0.0,0.0,0.0,0.0,1.0056,1.0733,1.1101,1.1228,1.1038,1.1001,1.0853,1.0329,0.9305,0.8413,0.8119,0.7813,0.7203,0.6,0.5766,0.0,0.0,0.0,0.5701,0.6167,0.6333,0.6486,0.6713,0.6739,0.6626,0.6402,0.6464,0.6407,0.6177,0.6166,0.6246,0.6445,0.5628,0.5068,0.0,0.0,0.0,0.0,0.0,0.0,0.0,0.0,0.0,0.0,0.0,0.0,0.0,0.0,0.0,0.0,0.0,0.0,0.0,0.0,0.0,0.0,0.0,0.0,0.0,0.0,0.0,0.0,0.6765,0.7332,0.6879,0.7532,0.7614,0.0,0.0,0.0,0.0,0.0,0.0,0.8697,0.9111,0.9647,1.036,1.0031,1.0554,1.2072,1.2787,1.3505,1.4201,1.4149,1.4317,1.463,1.4317,1.4346,1.469,1.527,1.5277,1.4778,1.3626,1.2879,1.243,1.1961,1.1817,1.1936,1.2196,1.2061,1.1885,1.286,1.2881,1.2496,1.2621,1.2127,1.1323,1.0464,0.0,0.0,0.0,0.0,1.0708,1.1438,1.1844,1.195,1.1511,1.1408,1.1173,1.029,0.9502,0.8902,0.8625,0.8431,0.7904,0.6684,0.6483,0.0,0.607,0.6075,0.6218,0.6535,0.6623,0.6768,0.7065,0.6871,0.656,0.6174,0.6241,0.6184,0.5921,0.5903,0.6077,0.6488,0.5777,0.5254,0.5009,0.0,0.0,0.0,0.0,0.0,0.0,0.0,0.0,0.0,0.0,0.0,0.0,0.0,0.0,0.0,0.0,0.0,0.0,0.0,0.0,0.0,0.0,0.0,0.0,0.0,0.0,0.0,0.0,0.0,0.6644,0.7323,0.0,0.0,0.0,0.0,0.8695,0.8725,0.9005,0.9606,0.9832,1.023,1.0842,1.151,1.1987,1.2278,1.2765,1.3314,1.3914,1.3926,1.3926,1.3969,1.444,1.4395,1.4024,1.5116,1.5286,1.4782,1.4659,1.4511,1.431,1.3788,1.3765,1.4006,1.3707,1.3898,1.4284,1.4103,1.402,1.4065,1.4576,1.3606,1.2123,1.1515,1.0956,0.0,0.0,1.1363,1.1571,1.2111,1.1947,1.148,1.0801,1.0668,1.0459,0.9713,0.9493,0.9322,0.8875,0.8072,0.7304,0.6769,0.0,0.6549,0.6151,0.6097,0.613,0.622,0.6219,0.6244,0.6251,0.6256,0.6109,0.5755,0.5732,0.5781,0.5889,0.5898,0.6083,0.6485,0.6088,0.5855,0.5836,0.4691,0.0,0.0,0.0,0.0,0.0,0.0,0.0,0.0,0.0,0.0,0.0,0.0,0.0,0.0,0.0,0.0,0.0,0.0,0.0,0.0,0.0,0.0,0.0,0.0,0.0,0.0,0.0,0.0,0.6756,0.7299,0.0,0.7088,0.8024,0.8483,0.8003,0.8913,0.9413,0.9202,0.9497,0.9909,1.0432,1.0874,1.1319,1.1771,1.1649,1.1805,1.2268,1.1779,1.2072,1.3135,1.3374,1.3585,1.3807,1.4665,1.4914,1.4731,1.4718,1.4728,1.4739,1.4554,1.4551,1.4593,1.4076,1.4256,1.4676,1.42,1.4026,1.3953,1.3408,1.281,1.2194,1.1696,1.1399,1.1246,1.1262,1.1296,1.1303,1.1329,1.1223,1.0954,1.0452,1.033,1.0193,0.9629,0.9221,0.8936,0.8766,0.8473,0.7942,0.7055,0.6891,0.6777,0.6471,0.6421,0.6494,0.6693,0.6713,0.6713,0.6713,0.6566,0.6412,0.6286,0.5932,0.5716,0.5774,0.5618,0.5688,0.6098,0.5732,0.5443,0.533,0.4646,0.4017,0.0,0.0,0.0,0.0,0.0,0.0,0.0,0.0,0.0,0.0,0.0,0.0,0.0,0.0,0.0,0.0,0.0,0.0,0.0,0.0,0.0,0.0,0.0,0.0,0.0,0.7359,0.7788,0.6597,0.7351,0.7697,0.7032,0.8147,0.8692,0.821,0.8956,0.9286,0.898,0.8974,0.9216,0.9673,0.9873,1.0254,1.0897,1.0586,1.0679,1.119,1.0653,1.0981,1.2067,1.2113,1.2342,1.2768,1.3679,1.3924,1.3716,1.4181,1.4283,1.4204,1.4656,1.4824,1.4783,1.4381,1.4485,1.4775,1.4381,1.4234,1.4075,1.3118,1.2646,1.2369,1.1827,1.1517,1.1287,1.1116,1.1066,1.103,1.0856,1.0788,1.068,1.0178,1.0081,0.9919,0.9378,0.8977,0.8742,0.8742,0.8578,0.8183,0.7433,0.7302,0.7225,0.6939,0.6895,0.6914,0.6993,0.7,0.7,0.7,0.6683,0.6418,0.6296,0.5844,0.5462,0.5206,0.5258,0.5349,0.5462,0.5255,0.5076,0.4935,0.4582,0.4068,0.3397,0.0,0.0,0.0,0.0,0.0,0.0,0.0,0.0,0.0,0.0,0.0,0.0,0.0,0.0,0.0,0.0,0.0,0.0,0.0,0.0,0.0,0.0,0.0,0.6284,0.72,0.7397,0.6129,0.741,0.8121,0.732,0.8575,0.9413,0.939,0.8812,0.8632,0.9009,0.8331,0.8176,0.8612,0.8645,0.8937,0.9603,0.9629,1.0003,1.0712,1.0737,1.0737,1.0737,1.0762,1.0771,1.0838,1.2156,1.2342,1.1776,1.307,1.324,1.2762,1.4113,1.4629,1.4629,1.4595,1.4629,1.4629,1.4629,1.4629,1.4537,1.3909,1.3273,1.2628,1.1978,1.1316,1.0788,1.0762,1.0771,1.0762,1.0737,1.0737,1.0559,0.9917,0.9762,0.9588,0.8936,0.8778,0.8752,0.8752,0.8275,0.7884,0.7919,0.7919,0.7812,0.7528,0.7482,0.0,0.6989,0.695,0.6964,0.6979,0.6498,0.6058,0.5745,0.5446,0.4967,0.4262,0.4874,0.5055,0.4602,0.4711,0.4799,0.4807,0.4535,0.4269,0.4012,0.0,0.0,0.0,0.0,0.0,0.0,0.0,0.0,0.0,0.0,0.0,0.0,0.0,0.0,0.0,0.0,0.0,0.0,0.0,0.0,0.0,0.6645,0.6643,0.5893,0.6471,0.6553,0.5482,0.6056,0.6464,0.6247,0.72,0.7641,0.7133,0.757,0.7689,0.7314,0.7109,0.703,0.7175,0.7181,0.7256,0.7443,0.7986,0.8363,0.8547,0.9093,0.9335,0.9361,0.9865,1.0064,1.0115,1.0981,1.1224,1.1074,1.144,1.1481,1.1439,1.2743,1.3243,1.3196,1.2691,1.2864,1.3324,1.3324,1.3324,1.3124,1.1994,1.1499,1.1333,1.1141,1.0939,1.0686,1.021,1.0064,0.9969,0.9484,0.9335,0.9309,0.9106,0.9087,0.9035,0.8831,0.8374,0.7996,0.7996,0.7448,0.7246,0.8109,0.825,0.7965,0.7126,0.699,0.6731,0.6006,0.5911,0.6046,0.6389,0.5889,0.5695,0.6037,0.5277,0.4709,0.4507,0.44,0.4302,0.4167,0.4484,0.47,0.4793,0.4535,0.4362,0.0,0.0,0.0,0.0,0.0,0.0,0.0,0.0,0.0,0.0,0.0,0.0,0.0,0.0,0.0,0.0,0.0,0.0,0.0,0.0,0.0,0.0,0.6632,0.6413,0.5045,0.5856,0.6197,0.5134,0.5582,0.5878,0.5608,0.6422,0.679,0.6409,0.6594,0.6553,0.6172,0.5878,0.5719,0.5719,0.5719,0.585,0.6145,0.6551,0.6934,0.7235,0.767,0.8049,0.8348,0.8751,0.9086,0.9413,1.009,1.0218,0.9987,1.0269,1.0218,1.0082,0.0,0.0,0.0,0.0,1.158,1.196,1.196,1.196,1.1837,1.1057,1.0618,1.0389,1.0389,1.0192,0.9891,0.9484,0.9387,0.9283,0.891,0.856,0.8348,0.8348,0.8103,0.7883,0.7883,0.753,0.7235,0.7235,0.6885,0.0,0.7524,0.7656,0.7406,0.6654,0.6542,0.6339,0.5709,0.5558,0.5596,0.5891,0.532,0.5065,0.5416,0.4776,0.0,0.0,0.0,0.4095,0.3928,0.419,0.0,0.0,0.0,0.0,0.0,0.5304,0.0,0.0,0.4977,0.5201,0.0,0.0,0.0,0.0,0.0,0.0,0.0,0.0,0.0,0.0,0.0,0.0,0.0,0.0,0.0,0.0,0.6091,0.5717,0.4052,0.5137,0.5712,0.4683,0.528,0.5574,0.5118,0.5775,0.6258,0.6344,0.5764,0.5378,0.5378,0.4814,0.0,0.0,0.0,0.4787,0.5378,0.546,0.5814,0.6475,0.6561,0.6939,0.7589,0.767,0.8023,0.8586,0.9361,0.9256,0.8613,0.9276,0.9171,0.8685,1.0031,1.0559,1.0593,1.0661,1.0695,1.0695,1.0695,0.0,0.0,1.0593,1.0167,0.9692,0.9692,0.9256,0.8778,0.8699,0.8672,0.8646,0.856,0.8076,0.7584,0.7584,0.7074,0.6588,0.6588,0.6534,0.6475,0.6475,0.6426,0.6372,0.6372,0.6507,0.6491,0.6178,0.6123,0.5993,0.5662,0.5457,0.5381,0.5427,0.4781,0.0,0.442,0.4109,0.3753,0.3327,0.3888,0.4122,0.3808,0.3922,0.4175,0.4575,0.4745,0.5252,0.6097,0.617,0.6234,0.6283,0.5735,0.5909,0.0,0.0,0.0,0.0,0.0,0.0,0.0,0.0,0.0,0.0,0.0,0.0,0.0,0.0,0.0,0.5355,0.49,0.4372,0.4004,0.3446,0.294,0.2606,0.2808,0.3167,0.3638,0.3853,0.4199,0.4842,0.4763,0.4704,0.4704,0.457,0.4491,0.4491,0.4491,0.457,0.4677,0.5218,0.5569,0.5733,0.6312,0.0,0.6831,0.7423,0.7456,0.7101,0.8415,0.8256,0.7074,0.7797,0.7691,0.7182,0.862,0.9185,0.9263,0.9788,0.9987,0.9987,0.9987,0.9987,0.9917,0.9361,0.9113,0.8982,0.8982,0.891,0.0,0.8076,0.791,0.7777,0.7182,0.6912,0.6804,0.6804,0.6696,0.6588,0.6588,0.6145,0.5706,0.5706,0.5277,0.4897,0.4897,0.5855,0.6379,0.5734,0.5649,0.537,0.4606,0.4485,0.4589,0.4967,0.4357,0.4114,0.4598,0.3911,0.3389,0.3306,0.3324,0.3494,0.3788,0.3822,0.4028,0.4427,0.4485,0.483,0.5465,0.5967,0.6421,0.6854,0.672,0.6753,0.0,0.0,0.0,0.0,0.0,0.0,0.0,0.0,0.0,0.0,0.0,0.2476,0.3268,0.0,0.3913,0.4082,0.3727,0.3232,0.2622,0.2039,0.1775,0.2073,0.2154,0.2343,0.2702,0.3121,0.3511,0.3873,0.4267,0.4491,0.4491,0.4491,0.4491,0.4491,0.4491,0.4491,0.4491,0.4842,0.5003,0.5003,0.5359,0.5714,0.6064,0.6443,0.6605,0.6642,0.7369,0.7289,0.6642,0.6993,0.6939,0.6669,0.7396,0.791,0.8289,0.8613,0.8745,0.8797,0.9178,0.8823,0.8204,0.8229,0.7996,0.7696,0.7696,0.7696,0.7616,0.7262,0.7155,0.7074,0.6696,0.634,0.6064,0.6064,0.5796,0.5555,0.5555,0.525,0.5003,0.5003,0.4732,0.4491,0.4491,0.5089,0.5414,0.5058,0.5003,0.484,0.4419,0.4267,0.4297,0.4521,0.4168,0.4024,0.4314,0.3857,0.3519,0.3448,0.3392,0.3419,0.3539,0.3637,0.3926,0.438,0.4503,0.4879,0.5545,0.5845,0.614,0.6412,0.6533,0.6998,0.0,0.0,0.0,0.0,0.0,0.0,0.0,0.0,-0.0069,0.0645,0.1117,0.1593,0.2168,0.2609,0.2852,0.2766,0.2636,0.2207,0.1224,0.0978,0.1118,0.1703,0.1786,0.184,0.1981,0.2704,0.3204,0.3314,0.3901,0.4267,0.4267,0.4125,0.4055,0.4054,0.4222,0.4322,0.432,0.4492,0.458,0.458,0.458,0.4854,0.5374,0.5541,0.5851,0.6271,0.6229,0.6325,0.643,0.625,0.6182,0.6182,0.6182,0.6637,0.7283,0.7423,0.7482,0.7563,0.8156,0.7589,0.6696,0.7289,0.7074,0.6588,0.6588,0.6588,0.6561,0.6421,0.6394,0.6367,0.6236,0.5737,0.53,0.53,0.4893,0.4491,0.4491,0.4491,0.4491,0.4491,0.4491,0.4491,0.4491,0.4491,0.4491,0.4491,0.4491,0.4491,0.4491,0.4362,0.4264,0.4264,0.4129,0.4028,0.3998,0.3907,0.3788,0.3696,0.3689,0.3609,0.344,0.3598,0.3886,0.4321,0.4488,0.4916,0.5629,0.5667,0.576,0.5883,0.6151,0.6885,-0.1458,-0.0573,0.0,-0.0209,-0.0832,-0.1452,0.0,0.0,-0.1764,-0.1145,-0.0462,0.0247,0.0952,0.1669,0.2149,0.2258,0.1719,0.1251,0.1117,0.0532,0.014,0.0224,0.0252,0.0504,0.1146,0.1898,0.2619,0.3345,0.3428,0.3428,0.3428,0.2815,0.2458,0.2445,0.3263,0.3693,0.3706,0.4472,0.4867,0.4867,0.4867,0.4897,0.4987,0.5636,0.5636,0.5097,0.4955,0.5289,0.5844,0.504,0.4736,0.4736,0.4736,0.514,0.5814,0.6475,0.6723,0.6723,0.6804,0.675,0.6615,0.6696,0.6669,0.6588,0.6588,0.6588,0.6475,0.5814,0.5624,0.5487,0.4897,0.468,0.4598,0.4598,0.4543,0.4491,0.4491,0.4491,0.4491,0.4491,0.4491,0.4491,0.4491,0.4491,0.4491,0.4491,0.4491,0.4491,0.4491,0.4474,0.4467,0.4467,0.4281,0.4142,0.4008,0.3981,0.3964,0.3947,0.3947,0.394,0.392,0.3937,0.3993,0.4042,0.4059,0.4394,0.5005,0.5242,0.5624,0.6156,0.6443,0.6517,-0.1909,-0.1632,-0.1733,0.0,-0.2806,-0.3488,-0.2879,-0.3005,-0.2965,-0.2011,-0.1578,-0.1152,-0.0406,0.0,0.0357,0.0,0.0671,0.0448,0.0448,0.0196,0.0,0.0,0.0,0.0112,0.042,0.1118,0.1703,0.2037,0.2426,0.2649,0.2649,0.2358,0.2195,0.2196,0.2595,0.306,0.3592,0.3961,0.4394,0.4887,0.4887,0.4887,0.4918,0.5218,0.5188,0.4884,0.485,0.4998,0.5259,0.4869,0.4728,0.4728,0.4728,0.4843,0.5112,0.5726,0.5955,0.6009,0.6453,0.6073,0.5441,0.5846,0.5687,0.5391,0.5391,0.5391,0.5308,0.5003,0.4921,0.4838,0.457,0.4491,0.4491,0.4491,0.4491,0.4491,0.4491,0.4491,0.4491,0.4491,0.4491,0.4491,0.4491,0.4491,0.4491,0.4491,0.4491,0.4491,0.4491,0.4491,0.4491,0.4491,0.4436,0.4314,0.4139,0.4129,0.4089,0.4001,0.3994,0.3994,0.3994,0.3994,0.4038,0.4126,0.4129,0.4296,0.4669,0.4793,0.4954,0.5218,0.5326,0.5322,-0.2454,-0.2573,0.0,-0.3089,-0.398,-0.463,-0.3749,-0.3855,-0.3891,-0.3026,-0.2659,-0.2273,-0.1528,-0.1229,-0.0866,-0.0112,0.0,0.0,0.0,0.0,0.0,0.0,0.0,0.0,0.0,0.0671,0.109,0.109,0.1591,0.1905,0.1894,0.1708,0.1597,0.1595,0.1815,0.2279,0.2957,0.3463,0.3901,0.4281,0.4534,0.4534,0.4313,0.4534,0.4787,0.504,0.4965,0.4945,0.4941,0.4904,0.4887,0.4887,0.4887,0.485,0.4797,0.519,0.5274,0.53,0.5823,0.5363,0.457,0.5058,0.4893,0.4491,0.4491,0.4491,0.4491,0.4491,0.4491,0.4491,0.4491,0.4491,0.4491,0.4491,0.4491,0.4491,0.4491,0.4491,0.4491,0.4491,0.4491,0.4491,0.4491,0.4491,0.4491,0.4491,0.4491,0.4491,0.4491,0.4491,0.4491,0.4491,0.4491,0.4447,0.4291,0.4281,0.4233,0.4148,0.4141,0.4141,0.4141,0.4141,0.4195,0.4277,0.4281,0.4358,0.4491,0.4491,0.4491,0.4491,0.4491,0.4491,0.0,0.0,-0.3268,-0.3132,-0.3658,-0.4206,-0.418,-0.4341,-0.447,-0.4426,-0.3812,-0.3033,-0.2313,-0.1591,-0.0866,-0.0112,0.0,0.0,0.0,0.0,0.0,0.0,0.0,0.0,0.0,0.0671,0.109,0.109,0.1118,0.1134,0.1141,0.0441,0.0061,0.0064,0.0901,0.1335,0.137,0.3103,0.3571,0.2771,0.3637,0.3571,0.2804,0.3637,0.4508,0.5375,0.5189,0.5093,0.5079,0.4945,0.4887,0.4887,0.4887,0.4884,0.4881,0.4904,0.4747,0.4543,0.4546,0.4546,0.4491,0.4515,0.4519,0.4491,0.4491,0.4491,0.4491,0.4491,0.4491,0.4491,0.4491,0.4491,0.4491,0.4491,0.4491,0.4491,0.4491,0.4491,0.4491,0.4491,0.4491,0.4491,0.4491,0.4491,0.4491,0.4491,0.4491,0.4491,0.4491,0.4491,0.4491,0.4491,0.4491,0.4487,0.4484,0.4484,0.4481,0.4477,0.4477,0.4477,0.4477,0.4477,0.4481,0.4484,0.4484,0.4487,0.4491,0.4491,0.4491,0.4491,0.4491,0.4491,-0.4329,0.0,-0.5126,-0.4666,-0.5172,-0.5676,-0.5162,-0.5124,-0.503,-0.4598,-0.4165,-0.3562,-0.2399,-0.1916,-0.1325,-0.019,0.0,0.0,0.0,0.0,0.0,0.0,0.0,0.0,0.0,0.0224,0.0364,0.0364,0.0364,0.0369,0.0382,0.012,0.0,0.0,0.0296,0.0699,0.1307,0.1909,0.2376,0.2711,0.3011,0.2978,0.2744,0.3613,0.4184,0.4517,0.5071,0.5284,0.5281,0.5266,0.5245,0.5245,0.5245,0.5152,0.5029,0.5029,0.4904,0.4752,0.4679,0.4641,0.4627,0.4525,0.4491,0.4491,0.4491,0.4491,0.4491,0.4491,0.4491,0.4491,0.4491,0.4491,0.4491,0.4491,0.4491,0.4491,0.4491,0.4491,0.4491,0.4491,0.4491,0.4491,0.4491,0.4491,0.4491,0.4491,0.4491,0.4491,0.4491,0.4491,0.4491,0.4491,0.4491,0.4491,0.4491,0.4491,0.4491,0.4491,0.4491,0.4491,0.4491,0.4491,0.4491,0.4491,0.4491,0.4491,0.4491,0.4491,0.4491,0.4491,0.4491,0.4491,-0.5545,-0.5925,-0.6306,-0.5883,-0.619,-0.6394,-0.5678,-0.5515,-0.528,-0.4555,-0.4244,-0.372,-0.2365,-0.2008,-0.1495,-0.0212,0.0,0.0,0.0,0.0,0.0,0.0,0.0,0.0,0.0,0.0,0.0,0.0,0.0,0.0,0.0,0.0,0.0,0.0,0.0,0.0269,0.0839,0.114,0.1608,0.221,0.1877,0.191,0.2209,0.2778,0.3211,0.358,0.4519,0.4891,0.4921,0.5259,0.5395,0.5395,0.5395,0.5334,0.5213,0.5213,0.5155,0.5047,0.4843,0.4772,0.4748,0.4624,0.4573,0.4563,0.4505,0.4491,0.4491,0.4491,0.4491,0.4491,0.4491,0.4491,0.4491,0.4491,0.4491,0.4491,0.4491,0.4491,0.4491,0.4491,0.4491,0.4491,0.4491,0.4491,0.4491,0.4491,0.4491,0.4491,0.4491,0.4491,0.4491,0.4491,0.4491,0.4491,0.4491,0.4491,0.4491,0.4491,0.4491,0.4491,0.4491,0.4491,0.4491,0.4491,0.4491,0.4491,0.4491,0.4491,0.4491,0.4491,0.4491,0.4491,-0.686,-0.6833,-0.6813,-0.6637,-0.6588,-0.6394,-0.5678,-0.5506,-0.5236,-0.4369,-0.4085,-0.3568,-0.2263,0.0,-0.1409,-0.0209,0.0,0.0,0.0,0.0,0.0,0.0,0.0,0.0,0.0,0.0,0.0,0.0,0.0,0.0,0.0,0.0,0.0,0.0,0.0,0.0,0.0,0.0806,0.124,0.124,0.0404,0.0437,0.124,0.1273,0.1775,0.2678,0.3547,0.3949,0.4015,0.4891,0.5259,0.5259,0.5329,0.5329,0.5326,0.5395,0.5395,0.5354,0.504,0.4908,0.4874,0.4693,0.4672,0.4674,0.45,0.448,0.4501,0.4501,0.4494,0.4491,0.4491,0.4491,0.4491,0.4491,0.4491,0.4491,0.4491,0.4491,0.4491,0.4491,0.4491,0.4491,0.4491,0.4491,0.4491,0.4491,0.4491,0.4491,0.4491,0.4491,0.4491,0.4491,0.4491,0.4491,0.4491,0.4491,0.4491,0.4491,0.4491,0.4491,0.4491,0.4491,0.4491,0.4491,0.4491,0.4491,0.4491,0.4491,0.4491,0.4491,0.4491,0.4491,-0.7271,-0.7326,-0.7338,-0.6746,-0.6588,-0.6394,-0.5678,-0.5414,-0.511,-0.4234,-0.3873,-0.3372,-0.2333,-0.1865,0.0,-0.0446,-0.0129,0.0,0.0,0.0,0.0,0.0,0.0,0.0,0.0,0.0,0.0,0.0,0.0,0.0,0.0,0.0,0.0,0.0,0.0,0.0,0.0,0.0236,0.0337,0.0337,0.0101,0.0101,0.037,0.1006,0.1441,0.1708,0.2644,0.3045,0.3045,0.328,0.338,0.3447,0.4115,0.435,0.4453,0.516,0.5395,0.5385,0.5306,0.5172,0.4925,0.4138,0.4312,0.4733,0.4028,0.4218,0.4662,0.4662,0.458,0.4491,0.4491,0.4491,0.4491,0.4491,0.4491,0.4491,0.4491,0.4491,0.4491,0.4491,0.4491,0.4491,0.4491,0.4491,0.4491,0.4491,0.4491,0.4491,0.4491,0.4491,0.4491,0.4491,0.4491,0.4491,0.4491,0.4491,0.4491,0.4491,0.4491,0.4491,0.4491,0.4491,0.4491,0.4491,0.4491,0.4491,0.4491,0.4491,0.4491,0.4491,0.4491,0.4491,-0.7986,-0.8064,-0.8076,-0.767,-0.7316,-0.6854,-0.5989,-0.5503,-0.4907,-0.383,-0.3442,-0.299,-0.1986,-0.1573,0.0,0.0,0.0,0.0,0.0,0.0,0.0,0.0,0.0,0.0,0.0,0.0,0.0,0.0,0.0,0.0,0.0,0.0,0.0,0.0,0.0,0.0,0.0,0.0,0.0,0.0,0.0,0.0,0.0,0.0504,0.0739,0.0772,0.1676,0.2075,0.211,0.2544,0.2711,0.2744,0.3245,0.3445,0.348,0.4015,0.4217,0.4217,0.4217,0.4139,0.3997,0.3759,0.4007,0.4247,0.3267,0.3276,0.3589,0.3589,0.3544,0.348,0.3488,0.3733,0.3975,0.3971,0.4236,0.4491,0.4491,0.4491,0.4405,0.407,0.3735,0.3483,0.3483,0.3483,0.3483,0.3483,0.3763,0.3984,0.4015,0.4294,0.4491,0.4491,0.4491,0.4491,0.4491,0.4491,0.4491,0.4491,0.4491,0.4491,0.4491,0.4491,0.4491,0.4491,0.4491,0.4491,0.4491,0.4491,0.4491,0.4491,0.4491,0.4491,-0.8738,-0.8804,-0.8804,-0.8804,-0.8235,-0.7425,-0.6441,-0.5557,-0.4597,-0.3288,0.0,-0.2434,-0.1456,-0.1145,-0.0838,-0.0153,0.0,0.0,0.0,0.0,0.0,0.0,0.0,0.0,0.0,0.0,0.0,0.0,0.0,0.0,0.0,0.0,0.0,0.0,0.0,0.0,0.0,0.0,0.0,0.0,0.0,0.0,0.0,0.0,0.0,0.0034,0.0806,0.114,0.1207,0.2009,0.2344,0.2344,0.2477,0.2511,0.2544,0.2644,0.2711,0.2711,0.2711,0.2711,0.28,0.3314,0.3544,0.3464,0.2412,0.2169,0.2225,0.2225,0.2219,0.2197,0.2199,0.2673,0.3167,0.3163,0.3691,0.4184,0.4184,0.4184,0.4015,0.3372,0.2676,0.2202,0.2202,0.2202,0.2202,0.2202,0.2732,0.3204,0.3372,0.4042,0.4491,0.4491,0.4491,0.4491,0.4491,0.4491,0.4491,0.4491,0.4491,0.446,0.4349,0.4349,0.4349,0.4349,0.4349,0.4405,0.4491,0.4491,0.4491,0.4491,0.4491,0.4491,-0.8791,-0.8804,-0.8804,-0.8804,-0.8235,-0.7425,-0.6441,-0.5232,0.0,0.0,-0.2194,-0.168,-0.1215,-0.0942,-0.068,-0.0377,0.0,0.0,0.0,0.0,0.0,0.0,0.0,0.0,0.0,0.0,0.0,0.0,0.0,0.0,0.0,0.0,0.0,0.0,0.0,0.0,0.0,0.0,0.0,0.0,0.0,0.0,0.0,0.0,0.0,0.0,0.0168,0.0236,0.0236,0.0404,0.0471,0.0538,0.1275,0.1541,0.1641,0.241,0.2711,0.2711,0.2711,0.2711,0.2608,0.193,0.2259,0.2722,0.1752,0.1917,0.2456,0.2456,0.2318,0.221,0.2196,0.2301,0.2399,0.2385,0.2503,0.2593,0.2593,0.2593,0.2565,0.2426,0.2286,0.2202,0.2202,0.2202,0.2202,0.2202,0.2313,0.2619,0.3234,0.4015,0.4491,0.4491,0.4491,0.4491,0.4491,0.4491,0.4491,0.4491,0.4491,0.4208,0.3539,0.3511,0.3511,0.3511,0.3511,0.3846,0.4491,0.4491,0.4491,0.4491,0.4491,0.4491,-0.8804,-0.8507,-0.8235,-0.8235,-0.7327,-0.6211,-0.5269,0.0,0.0,0.0,-0.1545,-0.1212,-0.0811,0.0,0.0,0.0,0.0,0.0,0.0,0.0,0.0,0.0,0.0,0.0,0.0,0.0,0.0,0.0,0.0,0.0,0.0,0.0,0.0,0.0,0.0,0.0,0.0,0.0,0.0,0.0,0.0,0.0,0.0,0.0,0.0,0.0,0.0,0.0,0.0,0.0,0.0,0.0034,0.0471,0.0638,0.0672,0.1141,0.1309,0.1309,0.1309,0.1309,0.1208,0.0773,0.1241,0.1809,0.0906,0.0899,0.1185,0.1185,0.1141,0.1061,0.1045,0.134,0.1626,0.163,0.193,0.2191,0.2212,0.189,0.1624,0.1624,0.1312,0.1062,0.1062,0.1062,0.1062,0.1062,0.1368,0.1758,0.212,0.2815,0.3624,0.4405,0.4491,0.4491,0.4491,0.4153,0.3901,0.3873,0.3511,0.3121,0.2732,0.2732,0.2732,0.2732,0.2732,0.2926,0.3314,0.3735,0.3929,0.3929,0.4322,0.4532,-0.8547,-0.8023,-0.745,-0.745,-0.6365,-0.5073,-0.4208,-0.3256,0.0,0.0,-0.0929,-0.0751,-0.0382,0.0,-0.0249,0.0,0.0,0.0,0.0,0.0,0.0,0.0,0.0,0.0,0.0,0.0,0.0,0.0,0.0,0.0,0.0,0.0,0.0,0.0,0.0,0.0,0.0,0.0,0.0,0.0,0.0,0.0,0.0,0.0,0.0,0.0,0.0,0.0,0.0,0.0,0.0,0.0,0.0,0.0,0.0,0.0,0.0,0.0,0.0,0.0,0.0,0.0,0.0471,0.0906,0.0202,0.0,0.0,0.0,0.0,0.0,0.0,0.0421,0.0863,0.0868,0.1292,0.174,0.1728,0.1275,0.0854,0.0861,0.0398,0.0,0.0,0.0,0.0,0.0,0.0504,0.0923,0.109,0.1619,0.2482,0.3873,0.4015,0.4015,0.4015,0.3483,0.3121,0.3065,0.2508,0.212,0.1981,0.1952,0.1952,0.1952,0.1952,0.2035,0.2202,0.2843,0.3132,0.3156,0.3946,0.4362,-0.7738,-0.7262,-0.6696,-0.6696,-0.5995,-0.5073,-0.4208,0.0,0.0,-0.0917,-0.0403,-0.0093,-0.005,-0.0038,-0.0028,0.0,0.0,0.0,0.0,0.0,0.0,0.0,0.0,0.0,0.0,0.0,0.0,0.0,0.0,0.0,0.0,0.0,0.0,0.0,0.0,0.0,0.0,0.0,0.0,0.0,0.0,0.0,0.0,0.0,0.0,0.0,0.0,0.0,0.0,0.0,0.0,0.0,0.0,0.0,0.0,0.0,0.0,0.0,0.0,0.0,0.0,0.0,0.0067,0.0101,0.0034,0.0,0.0,0.0,0.0,0.0,0.0,0.0066,0.0096,0.0093,0.0154,0.0216,0.0215,0.0154,0.0092,0.0092,0.006,0.0,0.0,0.0,0.0,0.0,0.0056,0.0336,0.1006,0.1146,0.1507,0.2315,0.2397,0.2397,0.2397,0.2343,0.2313,0.2313,0.2232,0.1898,0.1229,0.1202,0.1202,0.1202,0.1202,0.1535,0.2202,0.2286,0.2322,0.2334,0.3266,0.3679,-0.6872,-0.6425,-0.5928,-0.5928,-0.4955,-0.3779,-0.3069,0.0,-0.1135,-0.042,-0.0125,0.0,0.0,0.0,0.0,0.0,0.0,0.0,0.0,0.0,0.0,0.0,0.0,0.0,0.0,0.0,0.0,0.0,0.0,0.0,0.0,0.0,0.0,0.0,0.0,0.0,0.0,0.0,0.0,0.0,0.0,0.0,0.0,0.0,0.0,0.0,0.0,0.0,0.0,0.0,0.0,0.0,0.0,0.0,0.0,0.0,0.0,0.0,0.0,0.0,0.0,0.0,0.0,0.0,0.0,0.0,0.0,0.0,0.0,0.0,0.0,0.0,0.0,0.0,0.0,0.0,0.0,0.0,0.0,0.0,0.0,0.0,0.0,0.0,0.0,0.0,0.0,0.0119,0.0386,0.0445,0.0564,0.0831,0.1658,0.2202,0.2202,0.1786,0.1535,0.1535,0.1118,0.0755,0.0448,0.0448,0.0448,0.0448,0.0448,0.0594,0.0864,0.1323,0.1551,0.1569,0.2382,0.3095,-0.6005,-0.5642,-0.5191,-0.5191,-0.4147,-0.2947,0.0,-0.1523,-0.0729,-0.0127,0.0,0.0,0.0,0.0,0.0,0.0,0.0,0.0,0.0,0.0,0.0,0.0,0.0,0.0,0.0,0.0,0.0,0.0,0.0,0.0,0.0,0.0,0.0,0.0,0.0,0.0,0.0,0.0,0.0,0.0,0.0,0.0,0.0,0.0,0.0,0.0,0.0,0.0,0.0,0.0,0.0,0.0,0.0,0.0,0.0,0.0,0.0,0.0,0.0,0.0,0.0,0.0,0.0,0.0,0.0,0.0,0.0,0.0,0.0,0.0,0.0,0.0,0.0,0.0,0.0,0.0,0.0,0.0,0.0,0.0,0.0,0.0,0.0,0.0,0.0,0.0,0.0,0.0,0.0,0.0,0.0,0.0,0.0917,0.1547,0.156,0.1068,0.0783,0.0783,0.028,0.0,0.0,0.0,0.0,0.0,0.0,0.0,0.0,0.0507,0.0788,0.078,0.1559,0.2624,-0.5149,-0.4908,-0.4519,-0.4519,-0.379,-0.2953,0.0,-0.1524,-0.0722,-0.0119,0.0,0.0,0.0,0.0,0.0,0.0,0.0,0.0,0.0,0.0,0.0,0.0,0.0,0.0,0.0,0.0,0.0,0.0,0.0,0.0,0.0,0.0,0.0,0.0,0.0,0.0,0.0,0.0,0.0,0.0,0.0,0.0,0.0,0.0,0.0,0.0,0.0,0.0,0.0,0.0,0.0,0.0,0.0,0.0,0.0,0.0,0.0,0.0,0.0,0.0,0.0,0.0,0.0,0.0,0.0,0.0,0.0,0.0,0.0,0.0,0.0,0.0,0.0,0.0,0.0,0.0,0.0,0.0,0.0,0.0,0.0,0.0,0.0,0.0,0.0,0.0,0.0,0.0,0.0,0.0,0.0,0.0,0.0,0.003,0.003,0.0029,0.0,0.0,0.0,0.0,0.0,0.0,0.0,0.0,0.0,0.0,0.0,0.0,0.0,0.0032,0.0902,0.2284,-0.3721,-0.3604,-0.3374,-0.3284,-0.25,-0.168,-0.1484,-0.0844,-0.0228,-0.0039,0.0,0.0,0.0,0.0,0.0,0.0,0.0,0.0,0.0,0.0,0.0,0.0,0.0,0.0,0.0,0.0,0.0,0.0,0.0,0.0,0.0,0.0,0.0,0.0,0.0,0.0,0.0,0.0,0.0,0.0,0.0,0.0,0.0,0.0,0.0,0.0,0.0,0.0,0.0,0.0,0.0,0.0,0.0,0.0,0.0,0.0,0.0,0.0,0.0,0.0,0.0,0.0,0.0,0.0,0.0,0.0,0.0,0.0,0.0,0.0,0.0,0.0,0.0,0.0,0.0,0.0,0.0,0.0,0.0,0.0,0.0,0.0,0.0,0.0,0.0,0.0,0.0,0.0,0.0,0.0,0.0,0.0,0.0,0.0,0.0,0.0,0.0,0.0,0.0,0.0,0.0,0.0,0.0,0.0,0.0,0.0,0.0,0.0,0.0,0.0033,0.1556,0.2556,0.0,-0.2751,-0.2611,-0.2539,-0.1792,-0.1093,-0.1097,-0.0527,0.0,0.0,0.0,0.0,0.0,0.0,0.0,0.0,0.0,0.0,0.0,0.0,0.0,0.0,0.0,0.0,0.0,0.0,0.0,0.0,0.0,0.0,0.0,0.0,0.0,0.0,0.0,0.0,0.0,0.0,0.0,0.0,0.0,0.0,0.0,0.0,0.0,0.0,0.0,0.0,0.0,0.0,0.0,0.0,0.0,0.0,0.0,0.0,0.0,0.0,0.0,0.0,0.0,0.0,0.0,0.0,0.0,0.0,0.0,0.0,0.0,0.0,0.0,0.0,0.0,0.0,0.0,0.0,0.0,0.0,0.0,0.0,0.0,0.0,0.0,0.0,0.0,0.0,0.0,0.0,0.0,0.0,0.0,0.0,0.0,0.0,0.0,0.0,0.0,0.0,0.0,0.0,0.0,0.0,0.0,0.0,0.0,0.0,0.0,0.0,0.0,0.0034,0.1509,0.2177,0.0,-0.2216,-0.209,-0.2083,-0.1539,-0.1019,-0.1019,-0.0492,0.0,0.0,0.0,0.0,0.0,0.0,0.0,0.0,0.0,0.0,0.0,0.0,0.0,0.0,0.0,0.0,0.0,0.0,0.0,0.0,0.0,0.0,0.0,0.0,0.0,0.0,0.0,0.0,0.0,0.0,0.0,0.0,0.0,0.0,0.0,0.0,0.0,0.0,0.0,0.0,0.0,0.0,0.0,0.0,0.0,0.0,0.0,0.0,0.0,0.0,0.0,0.0,0.0,0.0,0.0,0.0,0.0,0.0,0.0,0.0,0.0,0.0,0.0,0.0,0.0,0.0,0.0,0.0,0.0,0.0,0.0,0.0,0.0,0.0,0.0,0.0,0.0,0.0,0.0,0.0,0.0,0.0,0.0,0.0,0.0,0.0,0.0,0.0,0.0,0.0,0.0,0.0,0.0,0.0,0.0,0.0,0.0,0.0,0.0,0.0,0.0,0.0034,0.0908,0.1311,-0.084,0.0,-0.1022,-0.0863,-0.054,-0.0259,0.0,-0.0126,0.0,0.0,0.0,0.0,0.0,0.0,0.0,0.0,0.0,0.0,0.0,0.0,0.0,0.0,0.0,0.0,0.0,0.0,0.0,0.0,0.0,0.0,0.0,0.0,0.0,0.0,0.0,0.0,0.0,0.0,0.0,0.0,0.0,0.0,0.0,0.0,0.0,0.0,0.0,0.0,0.0,0.0,0.0,0.0,0.0,0.0,0.0,0.0,0.0,0.0,0.0,0.0,0.0,0.0,0.0,0.0,0.0,0.0,0.0,0.0,0.0,0.0,0.0,0.0,0.0,0.0,0.0,0.0,0.0,0.0,0.0,0.0,0.0,0.0,0.0,0.0,0.0,0.0,0.0,0.0,0.0,0.0,0.0,0.0,0.0,0.0,0.0,0.0,0.0,0.0,0.0,0.0,0.0,0.0,0.0,0.0,0.0,0.0,0.0,0.0,0.0,0.0034,0.0892,0.1314,-0.0213,-0.0292,-0.0354,-0.024,-0.0103,0.0,0.0,0.0,0.0,0.0,0.0,0.0,0.0,0.0,0.0,0.0,0.0,0.0,0.0,0.0,0.0,0.0,0.0,0.0,0.0,0.0,0.0,0.0,0.0,0.0,0.0,0.0,0.0,0.0,0.0,0.0,0.0,0.0,0.0,0.0,0.0,0.0,0.0,0.0,0.0,0.0,0.0,0.0,0.0,0.0,0.0,0.0,0.0,0.0,0.0,0.0,0.0,0.0,0.0,0.0,0.0,0.0,0.0,0.0,0.0,0.0,0.0,0.0,0.0,0.0,0.0,0.0,0.0,0.0,0.0,0.0,0.0,0.0,0.0,0.0,0.0,0.0,0.0,0.0,0.0,0.0,0.0,0.0,0.0,0.0,0.0,0.0,0.0,0.0,0.0,0.0,0.0,0.0,0.0,0.0,0.0,0.0,0.0,0.0,0.0,0.0,0.0,0.0,0.0,0.0,0.0496,0.0712,0.0,0.0,0.0,0.0,0.0,0.0,0.0,0.0,0.0,0.0,0.0,0.0,0.0,0.0,0.0,0.0,0.0,0.0,0.0,0.0,0.0,0.0,0.0,0.0,0.0,0.0,0.0,0.0,0.0,0.0,0.0,0.0,0.0,0.0,0.0,0.0,0.0,0.0,0.0,0.0,0.0,0.0,0.0,0.0,0.0,0.0,0.0,0.0,0.0,0.0,0.0,0.0,0.0,0.0,0.0,0.0,0.0,0.0,0.0,0.0,0.0,0.0,0.0,0.0,0.0,0.0,0.0,0.0,0.0,0.0,0.0,0.0,0.0,0.0,0.0,0.0,0.0,0.0,0.0,0.0,0.0,0.0,0.0,0.0,0.0,0.0,0.0,0.0,0.0,0.0,0.0,0.0,0.0,0.0,0.0,0.0,0.0,0.0,0.0,0.0,0.0,0.0,0.0,0.0,0.0,0.0,0.0,0.0,0.0,0.0,0.0,0.0,0.0,0.0,0.0,0.0,0.0,0.0,0.0,0.0,0.0,0.0,0.0,0.0,0.0,0.0,0.0,0.0,0.0,0.0,0.0,0.0,0.0,0.0,0.0,0.0,0.0,0.0,0.0,0.0,0.0,0.0,0.0,0.0,0.0,0.0,0.0,0.0,0.0,0.0,0.0,0.0,0.0,0.0,0.0,0.0,0.0,0.0,0.0,0.0,0.0,0.0,0.0,0.0,0.0,0.0,0.0,0.0,0.0,0.0,0.0,0.0,0.0,0.0,0.0,0.0,0.0,0.0,0.0,0.0,0.0,0.0,0.0,0.0,0.0,0.0,0.0,0.0,0.0,0.0,0.0,0.0,0.0,0.0,0.0,0.0,0.0,0.0,0.0,0.0,0.0,0.0,0.0,0.0,0.0,0.0,0.0,0.0,0.0,0.0,0.0,0.0,0.0,0.0,0.0,0.0,0.0,0.0,0.0,0.0,0.0,0.0,0.0,0.0,0.0,0.0,0.0,0.0,0.0,0.0,0.0,0.0,0.0,0.0,0.0,0.0,0.0,0.0,0.0,0.0,0.0,0.0,0.0,0.0,0.0,0.0,0.0,0.0,0.0,0.0,0.0,0.0,0.0,0.0,0.0,0.0,0.0,0.0,0.0,0.0,0.0,0.0,0.0,0.0,0.0,0.0,0.0,0.0,0.0,0.0,0.0,0.0,0.0,0.0,0.0,0.0,0.0,0.0,0.0,0.0,0.0,0.0,0.0,0.0,0.0,0.0,0.0,0.0,0.0,0.0,0.0,0.0,0.0,0.0,0.0,0.0,0.0,0.0,0.0,0.0,0.0,0.0,0.0,0.0,0.0,0.0,0.0,0.0,0.0,0.0,0.0,0.0,0.0,0.0,0.0,0.0,0.0,0.0,0.0,0.0,0.0,0.0,0.0,0.0,0.0,0.0,0.0,0.0,0.0,0.0,0.0,0.0,0.0,0.0,0.0,0.0,0.0,0.0,0.0,0.0,0.0,0.0,0.0,0.0,0.0,0.0,0.0,0.0,0.0,0.0,0.0,0.0,0.0,0.0,0.0,0.0,0.0,0.0,0.0,0.0,0.0,0.0,0.0,0.0,0.0,0.0,0.0,0.0,0.0,0.0,0.0,0.0,0.0,0.0,0.0,0.0,0.0,0.0,0.0,0.0,0.0,0.0,0.0,0.0,0.0,0.0,0.0,0.0,0.0,0.0,0.0,0.0,0.0,0.0,0.0,0.0,0.0,0.0,0.0,0.0,0.0,0.0,0.0,0.0,0.0,0.0,0.0,0.0,0.0,0.0,0.0,0.0,0.0,0.0,0.0,0.0,0.0,0.0,0.0,0.0,0.0,0.0,0.0,0.0,0.0,0.0,0.0,0.0,0.0,0.0,0.0,0.0,0.0,0.0,0.0,0.0,0.0,0.0,0.0,0.0,0.0,0.0,0.0,0.0,0.0,0.0,0.0,0.0,0.0,0.0,0.0,0.0,0.0,0.0,0.0,0.0,0.0,0.0,0.0,0.0,0.0,0.0,0.0,0.0,0.0,0.0,0.0,0.0,0.0,0.0,0.0,0.0,0.0,0.0,0.0,0.0,0.0,0.0,0.0,0.0,0.0,0.0,0.0,0.0,0.0,0.0,0.0,0.0,0.0,0.0,0.0,0.0,0.0,0.0,0.0,0.0,0.0,0.0,0.0,0.0,0.0,0.0,0.0,0.0,0.0,0.0,0.0,0.0,0.0,0.0,0.0,0.0,0.0,0.0,0.0,0.0,0.0,0.0,0.0,0.0,0.0,0.0,0.0,0.0,0.0,0.0,0.0,0.0,0.0,0.0,0.0,0.0,0.0,0.0,0.0,0.0,0.0,0.0,0.0,0.0,0.0,0.0,0.0,0.0,0.0,0.0,0.0,0.0,0.0,0.0,0.0,0.0,0.0,0.0,0.0,0.0,0.0,0.0,0.0,0.0,0.0,0.0,0.0,0.0,0.0,0.0,0.0,0.0,0.0,0.0,0.0,0.0,0.0,0.0,0.0,0.0,0.0,0.0,0.0,0.0,0.0,0.0,0.0,0.0,0.0,0.0,0.0,0.0,0.0,0.0,0.0,0.0,0.0,0.0,0.0,0.0,0.0,0.0,0.0,0.0,0.0,0.0,0.0,0.0,0.0,0.0,0.0,0.0,0.0,0.0,0.0,0.0,0.0,0.0,0.0,0.0,0.0,0.0,0.0,0.0,0.0,0.0,0.0,0.0,0.0,0.0,0.0,0.0,0.0,0.0,0.0,0.0,0.0,0.0,0.0,0.0,0.0,0.0,0.0,0.0,0.0,0.0,0.0,0.0,0.0,0.0,0.0,0.0,0.0,0.0,0.0,0.0,0.0,0.0,0.0,0.0,0.0,0.0,0.0,0.0,0.0,0.0,0.0,0.0,0.0,0.0,0.0,0.0,0.0,0.0,0.0,0.0,0.0,0.0,0.0,0.0,0.0,0.0,0.0,0.0,0.0,0.0,0.0,0.0,0.0,0.0,0.0,0.0,0.0,0.0,0.0,0.0,0.0,0.0,0.0,0.0,0.0,0.0,0.0,0.0,0.0,0.0,0.0,0.0,0.0,0.0,0.0,0.0,0.0,0.0,0.0,0.0,0.0,0.0,0.0,0.0,0.0,0.0,0.0,0.0,0.0,0.0,0.0,0.0,0.0,0.0,0.0,0.0,0.0,0.0,0.0,0.0,0.0,0.0,0.0,0.0,0.0,0.0,0.0,0.0,0.0,0.0,0.0,0.0,0.0,0.0,0.0,0.0,0.0,0.0,0.0,0.0,0.0,0.0,0.0,0.0,0.0,0.0,0.0,0.0,0.0,0.0,0.0,0.0,0.0,0.0,0.0,0.0,0.0,0.0,0.0,0.0,0.0,0.0,0.0,0.0,0.0,0.0,0.0,0.0,0.0,0.0,0.0,0.0,0.0,0.0,0.0,0.0,0.0,0.0,0.0,0.0,0.0,0.0,0.0,0.0,0.0,0.0,0.0,0.0,0.0,0.0,0.0,0.0,0.0,0.0,0.0,0.0,0.0,0.0,0.0,0.0,0.0,0.0,0.0,0.0,0.0,0.0,0.0,0.0,0.0,0.0,0.0,0.0,0.0,0.0,0.0,0.0,0.0,0.0,0.0,0.0,0.0,0.0,0.0,0.0,0.0,0.0,0.0,0.0,0.0,0.0,0.0,0.0,0.0,0.0,0.0,0.0,0.0,0.0,0.0,0.0,0.0,0.0,0.0,0.0,0.0,0.0,0.0,0.0,0.0,0.0,0.0,0.0,0.0,0.0,0.0,0.0,0.0,0.0,0.0,0.0,0.0,0.0,0.0,0.0,0.0,0.0,0.0,0.0,0.0,0.0,0.0,0.0,0.0,0.0,0.0,0.0,0.0,0.0,0.0,0.0,0.0,0.0,0.0,0.0,0.0,0.0,0.0,0.0,0.0,0.0,0.0,0.0,0.0,0.0,0.0,0.0,0.0,0.0,0.0,0.0,0.0,0.0,0.0,0.0,0.0,0.0,0.0,0.0,0.0,0.0,0.0,0.0,0.0,0.0,0.0,0.0,0.0,0.0,0.0,0.0,0.0,0.0,0.0,0.0,0.0,0.0,0.0,0.0,0.0,0.0,0.0,0.0,0.0,0.0,0.0,0.0,0.0,0.0,0.0,0.0,0.0,0.0,0.0,0.0,0.0,0.0,0.0,0.0,0.0,0.0,0.0,0.0,0.0,0.0,0.0,0.0,0.0,0.0,0.0,0.0,0.0,0.0,0.0,0.0,0.0,0.0,0.0,0.0,0.0,0.0,0.0,0.0,0.0,0.0,0.0,0.0,0.0,0.0,0.0,0.0,0.0,0.0,0.0,0.0,0.0,0.0,0.0,0.0,0.0,0.0,0.0,0.0,0.0,0.0,0.0,0.0,0.0,0.0,0.0,0.0,0.0,0.0,0.0,0.0,0.0,0.0,0.0,0.0,0.0,0.0,0.0,0.0,0.0,0.0,0.0,0.0,0.0,0.0,0.0,0.0,0.0,0.0,0.0,0.0,0.0,0.0,0.0,0.0,0.0,0.0,0.0,0.0,0.0,0.0,0.0,0.0,0.0,0.0,0.0,0.0,0.0,0.0,0.0,0.0,0.0,0.0,0.0,0.0,0.0,0.0,0.0,0.0,0.0,0.0,0.0,0.0,0.0,0.0,0.0,0.0,0.0,0.0,0.0,0.0,0.0,0.0,0.0,0.0,0.0,0.0,0.0,0.0,0.0,0.0,0.0,0.0,0.0,0.0,0.0,0.0,0.0,0.0,0.0,0.0,0.0,0.0,0.0,0.0,0.0,0.0,0.0,0.0,0.0,0.0,0.0,0.0,0.0,0.0,0.0,0.0,0.0,0.0,0.0,0.0,0.0,0.0,0.0,0.0,0.0,0.0,0.0,0.0,0.0,0.0,0.0,0.0,0.0,0.0,0.0,0.0,0.0,0.0,0.0,0.0,0.0,0.0,0.0,0.0,0.0,0.0,0.0,0.0,0.0,0.0,0.0,0.0,0.0,0.0,0.0,0.0,0.0,0.0,0.0,0.0,0.0,0.0,0.0,0.0,0.0,0.0,0.0,0.0,0.0,0.0,0.0,0.0,0.0,0.0,0.0,0.0,0.0,0.0,0.0,0.0,0.0,0.0,0.0,0.0,0.0,0.0,0.0,0.0,0.0,0.0,0.0,0.0,0.0,0.0,0.0,0.0,0.0,0.0,0.0,0.0,0.0,0.0,0.0,0.0,0.0,0.0,0.0,0.0,0.0,0.0,0.0,0.0,0.0,0.0,0.0,0.0,0.0,0.0,0.0,0.0,0.0,0.0,0.0,0.0,0.0,0.0,0.0,0.0,0.0,0.0,0.0,0.0,0.0,0.0,0.0,0.0,0.0,0.0,0.0,0.0,0.0,0.0,0.0,0.0,0.0,0.0,0.0,0.0,0.0,0.0,0.0,0.0,0.0,0.0,0.0,0.0,0.0,0.0,0.0,0.0,0.0,0.0,0.0,0.0,0.0,0.0,0.0,0.0,0.0,0.0,0.0,0.0,0.0,0.0,0.0,0.0,0.0,0.0,0.0,0.0,0.0,0.0,0.0,0.0,0.0,0.0,0.0,0.0,0.0,0.0,0.0,0.0,0.0,0.0,0.0,0.0,0.0,0.0,0.0,0.0,0.0,0.0,0.0,0.0,0.0,0.0,0.0,0.0,0.0,0.0,0.0,0.0,0.0,0.0,0.0,0.0,0.0,0.0,0.0,0.0,0.0,0.0,0.0,0.0,0.0,0.0,0.0,0.0,0.0,0.0,0.0,0.0,0.0,0.0,0.0,0.0,0.0,0.0,0.0,0.0,0.0,0.0,0.0,0.0,0.0,0.0,0.0,0.0,0.0,0.0,0.0,0.0,0.0,0.0,0.0,0.0,0.0,0.0,0.0,0.0,0.0,0.0,0.0,0.0,0.0,0.0,0.0,0.0,0.0,0.0,0.0,0.0,0.0,0.0,0.0,0.0,0.0,0.0,0.0,0.0,0.0,0.0,0.0,0.0,0.0,0.0,0.0,0.0,0.0,0.0,0.0,0.0,0.0,0.0,0.0,0.0,0.0,0.0,0.0,0.0,0.0,0.0,0.0,0.0,0.0,0.0,0.0,0.0,0.0,0.0,0.0,0.0,0.0,0.0,0.0,0.0,0.0,0.0,0.0,0.0,0.0,0.0,0.0,0.0,0.0,0.0,0.0,0.0,0.0,0.0,0.0,0.0,0.0,0.0,0.0,0.0,0.0,0.0,0.0,0.0,0.0,0.0,0.0,0.0,0.0,0.0,0.0,0.0,0.0,0.0,0.0,0.0,0.0,0.0,0.0,0.0,0.0,0.0,0.0,0.0,0.0,0.0,0.0,0.0,0.0,0.0,0.0,0.0,0.0,0.0,0.0,0.0,0.0,0.0,0.0,0.0,0.0,0.0,0.0,0.0,0.0,0.0,0.0,0.0,0.0,0.0,0.0,0.0,0.0,0.0,0.0,0.0,0.0,0.0,0.0,0.0,0.0,0.0,0.0,0.0,0.0,0.0,0.0,0.0,0.0,0.0,0.0,0.0,0.0,0.0,0.0,0.0,0.0,0.0,0.0,0.0,0.0,0.0,0.0,0.0,0.0,0.0,0.0,0.0,0.0,0.0,0.0,0.0,0.0,0.0,0.0,0.0,0.0,0.0,0.0,0.0,0.0,0.0,0.0,0.0,0.0,0.0,0.0,0.0,0.0,0.0,0.0,0.0,0.0,0.0,0.0,0.0,0.0,0.0,0.0,0.0,0.0,0.0,0.0,0.0,0.0,0.0,0.0,0.0,0.0,0.0,0.0,0.0,0.0,0.0,0.0,0.0,0.0,0.0,0.0,0.0,0.0,0.0,0.0,0.0,0.0,0.0,0.0,0.0,0.0,0.0,0.0,0.0,0.0,0.0,0.0,0.0,0.0,0.0,0.0,0.0,0.0,0.0,0.0,0.0,0.0,0.0,0.0,0.0,0.0,0.0,0.0,0.0,0.0,0.0,0.0,0.0,0.0,0.0,0.0,0.0,0.0,0.0,0.0,0.0,0.0,0.0,0.0,0.0,0.0,0.0,0.0,0.0,0.0,0.0,0.0,0.0,0.0,0.0,0.0,0.0,0.0,0.0,0.0,0.0,0.0,0.0,0.0,0.0,0.0,0.0,0.0,0.0,0.0,0.0,0.0,0.0,0.0,0.0,0.0,0.0,0.0,0.0,0.0,0.0,0.0,0.0,0.0,0.0,0.0,0.0,0.0,0.0,0.0,0.0,0.0,0.0,0.0,0.0,0.0,0.0,0.0,0.0,0.0,0.0,0.0,0.0,0.0,0.0,0.0047,0.0,0.0,0.0,0.0,0.0,0.0,0.0,0.0,0.0,0.0,0.0,0.0,0.0,0.0,0.0,0.0,0.0,0.0,0.0,0.0,0.0,0.0,0.0,0.0,0.0,0.0,0.0,0.0,0.0,0.0,0.0,0.0,0.0,0.0,0.0,0.0,0.0,0.0,0.0,0.0,0.0,0.0,0.0,0.0,0.0,0.0,0.0,0.0,0.0,0.0,0.0,0.0,0.0,0.0,0.0,0.0,0.0,0.0,0.0,0.0,0.0,0.0,0.0,0.0,0.0,0.0,0.0,0.0,0.0,0.0,0.0,0.0,0.0,0.0,0.0,0.0,0.0,0.0,0.0,0.0,0.0,0.0,0.0,0.0,0.0,0.0,0.0,0.0,0.0,0.0,0.0,0.0,0.0,0.0,0.0,0.0,0.0,0.0,0.0,0.0,0.0,0.0,0.0,0.0,0.0,0.0,0.0,0.0,0.0,0.0,0.0,0.0,0.0,0.0,0.0,0.0,0.0,0.0,0.0,0.0,0.0,0.0,0.0,0.0,0.0,0.0,0.0,0.0,0.0,0.0,0.0,0.0,0.0,0.0,0.0,0.0,0.0,0.0,0.0,0.0,0.0,0.0,0.0,0.0,0.0,0.0,0.0,0.0,0.0,0.0,0.0,0.0,0.0,0.0,0.0,0.0,0.0,0.0,0.0,0.0,0.0,0.0,0.0,0.0,0.0,0.0,0.0,0.0,0.0,0.0,0.0,0.0,0.0,0.0,0.0,0.0,0.0,0.0,0.0,0.0,0.0,0.0,0.0,0.0,0.0,0.0,0.0,0.0,0.0,0.0,0.0,0.0,0.0,0.0,0.0,0.0,0.0,0.0,0.0,0.0,0.0,0.0,0.0,0.0,0.0,0.0,0.0,0.0,0.0,0.0,0.0,0.0,0.0,0.0,0.0,0.0,0.0,0.0,0.0,0.0,0.0,0.0,0.0,0.0,0.0,0.0,0.0,0.0,0.0,0.0,0.0,0.0,0.0,0.0,0.0,0.0,0.0,0.0,0.0,0.0,0.0,0.0,0.0,0.0,0.0,0.0,0.0,0.0,0.0,0.0,0.0,0.0,0.0,0.0,0.0,0.0,0.0,0.0,0.0,0.0,0.0,0.0,0.0,0.0,0.0,0.0,0.0,0.0,0.0,0.0,0.0,0.0,0.0,0.0,0.0,0.0,0.0,0.0,0.0,0.0,0.0,0.0,0.0,0.0,0.0,0.0,0.0,0.0,0.0,0.0,0.0,0.0,0.0,0.0,0.0,0.0,0.0,0.0,0.0,0.0,0.0,0.0,0.0,0.0,0.0,0.0,0.0,0.0,0.0,0.0,0.0,0.0,0.0,0.0,0.0,0.0,0.0,0.0,0.0,0.0,0.0,0.0,0.0,0.0,0.0,0.0,0.0,0.0,0.0,0.0,0.0,0.0,0.0,0.0,0.0,0.0,0.0,0.0,0.0,0.0,0.0,0.0,0.0,0.0,0.0,0.0,0.0,0.0,0.0,0.0,0.0,0.0,0.0,0.0,0.0,0.0,0.0,0.0,0.0,0.0,0.0,0.0,0.0,0.0,0.0,0.0,0.0,0.0,0.0,0.0,0.0,0.0,0.0,0.0,0.0,0.0,0.0,0.0,0.0,0.0,0.0,0.0,0.0,0.0,0.0,0.0,0.0,0.0,0.0,0.0,0.0,0.0,0.0,0.0,0.0,0.0,0.0,0.0,0.0,0.0,0.0,0.0,0.0,0.0,0.0,0.0,0.0,0.0,0.0,0.0,0.0,0.0,0.0,0.0,0.0,0.0,0.0,0.0,0.0,0.0,0.0,0.0,0.0,0.0,0.0,0.0,0.0,0.0,0.0,0.0,0.0,0.0,0.0,0.0,0.0,0.0,0.0,0.0,0.0,0.0,0.0,0.0,0.0,0.0,0.0,0.0,0.0,0.0456,0.0,0.0,0.0,0.0,0.0,0.0,0.0,0.0,0.0,0.0,0.0,0.0,0.0,0.0,0.0,0.0,0.0,0.0,0.0,0.0,0.0,0.0,0.0,0.0,0.0,0.0,0.0,0.0,0.0,0.0,0.0,0.0,0.0,0.0,0.0,0.0,0.0,0.0,0.0,0.0,0.0,0.0,0.0,0.0,0.0,0.0,0.0,0.0,0.0,0.0,0.0,0.0,0.0,0.0,0.0,0.0,0.0,0.0,0.0,0.0,0.0,0.0,0.0,0.0,0.0,0.0,0.0,0.0,0.0,0.0,0.0,0.0,0.0,0.0,0.0,0.0,0.0,0.0,0.0,0.0,0.0,0.0,0.0,0.0,0.0,0.0,0.0,0.0,0.0,0.0,0.0,0.0,0.0,0.0,0.0,0.0,0.0,0.0,0.0,0.0,0.0,0.0,0.0,0.0,0.0,0.0,0.0,0.0,0.0,0.0,0.0,0.0,0.0,0.0,0.0,0.0,0.0,0.0,0.0,0.0,0.0,0.0,0.0,0.0,0.0,0.0,0.0,0.0,0.0,0.0,0.0,0.0,0.0,0.0,0.0,0.0,0.0,0.0,0.0,0.0,0.0,0.0,0.0,0.0,0.0,0.0,0.0,0.0,0.0,0.0,0.0,0.0,0.0,0.0,0.0,0.0,0.0,0.0,0.0,0.0,0.0,0.0,0.0,0.0,0.0,0.0,0.0,0.0,0.0,0.0,0.0,0.0,0.0,0.0,0.0,0.0,0.0,0.0,0.0,0.0,0.0,0.0,0.0,0.0,0.0,0.0,0.0,0.0,0.0,0.0,0.0,0.0,0.0,0.0,0.0,0.0,0.0,0.0,0.0,0.0,0.0,0.0,0.0,0.0,0.0,0.0,0.0,0.0,0.0,0.0,0.0,0.0,0.0,0.0,0.0,0.0,0.0,0.0,0.0,0.0,0.0,0.0,0.0,0.1135,0.0,0.0,0.0,0.0,0.0,0.0,0.0,0.0,0.0,0.0,0.0,0.0,0.0,0.0,0.0,0.0,0.0,0.0,0.0,0.0,0.0,0.0,0.0,0.0,0.0,0.0,0.0,0.0,0.0,0.0,0.0,0.0,0.0,0.0,0.0,0.0,0.0,0.0,0.0,0.0,0.0,0.0,0.0,0.0,0.0,0.0,0.0,0.0,0.0,0.0,0.0,0.0,0.0,0.0,0.0,0.0,0.0,0.0,0.0,0.0,0.0,0.0,0.0,0.0,0.0,0.0,0.0,0.0,0.0,0.0,0.0,0.0,0.0,0.0,0.0,0.0,0.0,0.0,0.0,0.0,0.0,0.0,0.0,0.0,0.0,0.0,0.0,0.0,0.0,0.0,0.0,0.0,0.0,0.0,0.0,0.0,0.0,0.0,0.0,0.0,0.0,0.0,0.0,0.0,0.0,0.0,0.0,0.0,0.0,0.0,0.0,0.0,0.0,0.0,0.0,0.0,0.0,0.0286,0.0134,0.0,0.0,0.0,0.0,0.0,0.0,0.0,0.0,0.0,0.0,0.0,0.0,0.0,0.0,0.0,0.0,0.0,0.0,0.0,0.0,0.0,0.0,0.0,0.0,0.0,0.0,0.0,0.0,0.0,0.0,0.0,0.0,0.0,0.0,0.0,0.0,0.0,0.0,0.0,0.0,0.0,0.0,0.0,0.0,0.0,0.0,0.0,0.0,0.0,0.0,0.0,0.0,0.0,0.0,0.0,0.0,0.0,0.0,0.0,0.0,0.0,0.0,0.0,0.0,0.0,0.0,0.0,0.0,0.0,0.0,0.0,0.0,0.0,0.0,0.0,0.0,0.0,0.0,0.0,0.0,0.0,0.0,0.0,0.0,0.0,0.0,0.0,0.0,0.0,0.0,0.0,0.0,0.0,0.0,0.0,0.0,0.0,0.0,0.0,0.0,0.0,0.0,0.0,0.0,0.0,0.0,0.0,0.0,0.112,0.0,0.0717,0.0408,0.0098,0.002,0.0,0.0,0.0,0.0,0.0,0.0,0.0,0.0,0.0,0.0,0.0,0.0,0.0,0.0,0.0,0.0,0.0,0.0,0.0,0.0,0.0,0.0,0.0,0.0,0.0,0.0,0.0,0.0,0.0,0.0,0.0,0.0,0.0,0.0,0.0,0.0,0.0,0.0,0.0,0.0,0.0,0.0,0.0,0.0,0.0,0.0,0.0,0.0,0.0,0.0,0.0,0.0,0.0,0.0,0.0,0.0,0.0,0.0,0.0,0.0,0.0,0.0,0.0,0.0,0.0,0.0,0.0,0.0,0.0,0.0,0.0,0.0,0.0,0.0,0.0,0.0,0.0,0.0,0.0,0.0,0.0,0.0,0.0,0.0,0.0,0.0,0.0,0.0,0.0,0.0,0.0,0.0,0.0,0.0,0.0,0.0,0.0,0.0,0.0,0.0,0.0,0.0,0.2586,0.2528,0.2412,0.198,0.0,0.0,0.0888,0.0793,0.0724,0.0123,0.0,0.0,0.0,0.0,0.0,0.0,0.0,0.0,0.0,0.0,0.0,0.0,0.0,0.0,0.0,0.0,0.0,0.0,0.0,0.0,0.0,0.0,0.0,0.0,0.0,0.0,0.0,0.0,0.0,0.0,0.0,0.0,0.0,0.0,0.0,0.0,0.0,0.0,0.0,0.0,0.0,0.0,0.0,0.0,0.0,0.0,0.0,0.0,0.0,0.0,0.0,0.0,0.0,0.0,0.0,0.0,0.0,0.0,0.0,0.0,0.0,0.0,0.0,0.0,0.0,0.0,0.0,0.0,0.0,0.0,0.0,0.0,0.0,0.0,0.0,0.0,0.0,0.0,0.0,0.0,0.0,0.0,0.0,0.0,0.0,0.0,0.0,0.0,0.0,0.0,0.0,0.0,0.0,0.0,0.0,0.0,0.0,0.0,0.0,0.0,0.0,0.0,0.2961,0.2897,0.2857,0.2737,0.0,0.0,0.0,0.1395,0.1033,0.0465,0.0345,0.0271,0.004,0.0,0.0,0.0,0.0,0.0,0.0,0.0,0.0,0.0,0.0,0.0,0.0,0.0,0.0,0.0,0.0,0.0,0.0,0.0,0.0,0.0,0.0,0.0,0.0,0.0,0.0,0.0,0.0,0.0,0.0,0.0,0.0,0.0,0.0,0.0,0.0,0.0,0.0,0.0,0.0,0.0,0.0,0.0,0.0,0.0,0.0,0.0,0.0,0.0,0.0,0.0,0.0,0.0,0.0,0.0,0.0,0.0,0.0,0.0,0.0,0.0,0.0,0.0,0.0,0.0,0.0,0.0,0.0,0.0,0.0,0.0,0.0,0.0,0.0,0.0,0.0,0.0,0.0,0.0,0.0,0.0,0.0,0.0,0.0,0.0,0.0,0.0,0.0,0.0,0.0,0.0,0.0,0.0,0.0,0.0,0.0,0.0,0.0,0.0,0.0,0.0,0.332,0.0,0.0,0.2518,0.0,0.0,0.0,0.0973,0.0796,0.0614,0.024,0.0079,0.0,0.0,0.0,0.0,0.0,0.0,0.0,0.0,0.0,0.0,0.0,0.0,0.0,0.0,0.0,0.0,0.0,0.0,0.0,0.0,0.0,0.0,0.0,0.0,0.0,0.0,0.0,0.0,0.0,0.0,0.0,0.0,0.0,0.0,0.0,0.0,0.0,0.0,0.0,0.0,0.0,0.0,0.0,0.0,0.0,0.0,0.0,0.0,0.0,0.0,0.0,0.0,0.0,0.0,0.0,0.0,0.0,0.0,0.0,0.0,0.0,0.0,0.0,0.0,0.0,0.0,0.0,0.0,0.0,0.0,0.0,0.0,0.0,0.0,0.0,0.0,0.0,0.0,0.0,0.0,0.0,0.0,0.0,0.0,0.0,0.0,0.0,0.0,0.0,0.0,0.0,0.0,0.0,0.0,0.0,0.0,0.0,0.0,0.0,0.0,0.0,0.0,0.3564,0.3497,0.233,0.0,0.2344,0.1643,0.0,0.0858,0.0803,0.0,0.0,0.0,0.0,0.0,0.0,0.0,0.0,0.0,0.0,0.0,0.0,0.0,0.0,0.0,0.0,0.0,0.0,0.0,0.0,0.0,0.0,0.0,0.0,0.0,0.0,0.0,0.0,0.0,0.0,0.0,0.0,0.0,0.0,0.0,0.0,0.0,0.0,0.0,0.0,0.0,0.0,0.0,0.0,0.0,0.0,0.0,0.0,0.0,0.0,0.0,0.0,0.0,0.0,0.0,0.0,0.0,0.0,0.0,0.0,0.0,0.0,0.0,0.0,0.0,0.0,0.0,0.0,0.0,0.0,0.0,0.0,0.0,0.0,0.0,0.0,0.0,0.0,0.0,0.0,0.0,0.0,0.0,0.0,0.0,0.0,0.0,0.0,0.0,0.0,0.0,0.0,0.0,0.0,0.0,0.0,0.0,0.0,0.0,0.0,0.0,0.0,0.0,0.3596,0.3425,0.2777,0.2724,0.2658,0.2064,0.0,0.0,0.0,0.0,0.0,0.0,0.0,0.0,0.0,0.0,0.0,0.0,0.0,0.0,0.0,0.0,0.0,0.0,0.0,0.0,0.0,0.0,0.0,0.0,0.0,0.0,0.0,0.0,0.0,0.0,0.0,0.0,0.0,0.0,0.0,0.0,0.0,0.0,0.0,0.0,0.0,0.0,0.0,0.0,0.0,0.0,0.0,0.0,0.0,0.0,0.0,0.0,0.0,0.0,0.0,0.0,0.0,0.0,0.0,0.0,0.0,0.0,0.0,0.0,0.0,0.0,0.0,0.0,0.0,0.0,0.0,0.0,0.0,0.0,0.0,0.0,0.0,0.0,0.0,0.0,0.0,0.0,0.0,0.0,0.0,0.0,0.0,0.0,0.0,0.0,0.0,0.0,0.0,0.0,0.0,0.0,0.0,0.0,0.0,0.0,0.0,0.0,0.4141,0.4141,0.4073,0.3802,0.3571,0.332,0.3044,0.2996,0.2905,0.2518,0.2189,0.0,0.0,0.0,0.0,0.0,0.0,0.0379,0.0222,0.0189,0.0146,0.0021,0.0,0.0,0.0,0.0,0.0,0.0,0.0,0.0,0.0,0.0,0.0,0.0,0.0,0.0,0.0,0.0,0.0,0.0,0.0,0.0,0.0,0.0,0.0,0.0,0.0,0.0,0.0,0.0,0.0,0.0,0.0,0.0,0.0,0.0,0.0,0.0,0.0,0.0,0.0,0.0,0.0,0.0,0.0,0.0,0.0,0.0,0.0,0.0,0.0,0.0,0.0,0.0,0.0,0.0,0.0,0.0,0.0,0.0,0.0,0.0,0.0,0.0,0.0,0.0,0.0,0.0,0.0,0.0,0.0,0.0,0.0,0.0,0.0,0.0,0.0,0.0,0.0,0.0,0.0,0.0,0.0,0.0,0.0,0.0,0.0,0.0,0.0,0.0,0.0,0.0,0.4477,0.4477,0.4334,0.3754,0.3604,0.344,0.2846,0.301,0.3256,0.3099,0.2948,0.2815,0.267,0.0,0.0,0.0,0.0,0.0,0.0,0.0674,0.0507,0.0051,0.0,0.0,0.0,0.0,0.0,0.0,0.0,0.0,0.0,0.0,0.0,0.0,0.0,0.0,0.0,0.0,0.0,0.0,0.0,0.0,0.0,0.0,0.0,0.0,0.0,0.0,0.0,0.0,0.0,0.0,0.0,0.0,0.0,0.0,0.0,0.0,0.0,0.0,0.0,0.0,0.0,0.0,0.0,0.0,0.0,0.0,0.0,0.0,0.0,0.0,0.0,0.0,0.0,0.0,0.0,0.0,0.0,0.0,0.0,0.0,0.0,0.0,0.0,0.0,0.0,0.0,0.0,0.0,0.0,0.0,0.0,0.0,0.0,0.0,0.0,0.0,0.0,0.0,0.0,0.0,0.0,0.0,0.0,0.0,0.0,0.0,0.0,0.0,0.0,0.0,0.4464,0.4491,0.4395,0.3968,0.3724,0.3494,0.3066,0.3148,0.3262,0.3131,0.2999,0.2856,0.2717,0.0,0.0,0.0,0.0,0.0,0.0,0.0891,0.0693,0.0311,0.0105,0.0,0.0,0.0,0.0,0.0,0.0,0.0,0.0,0.0,0.0,0.0,0.0,0.0,0.0,0.0,0.0,0.0,0.0,0.0,0.0,0.0,0.0,0.0,0.0,0.0,0.0,0.0,0.0,0.0,0.0,0.0,0.0,0.0,0.0,0.0,0.0,0.0,0.0,0.0,0.0,0.0,0.0,0.0,0.0,0.0,0.0,0.0,0.0,0.0,0.0,0.0,0.0,0.0,0.0,0.0,0.0,0.0,0.0,0.0,0.0,0.0,0.0,0.0,0.0,0.0,0.0,0.0,0.0,0.0,0.0,0.0,0.0,0.0,0.0,0.0,0.0,0.0,0.0,0.0,0.0,0.0,0.0,0.0,0.0,0.0,0.0,0.0,0.0,0.0,0.4464,0.4491,0.4419,0.4094,0.3877,0.3643,0.3263,0.334,0.3441,0.3314,0.3243,0.321,0.3176,0.0,0.0,0.0,0.0,0.0,0.0,0.1166,0.0948,0.0674,0.0,0.0,0.0,0.0,0.0,0.0,0.0,0.0,0.0,0.0,0.0,0.0,0.0,0.0,0.0,0.0,0.0,0.0,0.0,0.0,0.0,0.0,0.0,0.0,0.0,0.0,0.0,0.0,0.0,0.0,0.0,0.0,0.0,0.0,0.0,0.0,0.0,0.0,0.0,0.0,0.0,0.0,0.0,0.0,0.0,0.0,0.0,0.0,0.0,0.0,0.0,0.0,0.0,0.0,0.0,0.0,0.0,0.0,0.0,0.0,0.0,0.0,0.0,0.0,0.0,0.0,0.0,0.0,0.0,0.0,0.0,0.0,0.0,0.0,0.0,0.0,0.0,0.0,0.0,0.0,0.0,0.0,0.0,0.0,0.0,0.0,0.0,0.0,0.0,0.0]},{"header":{"parameterUnit":"m.s-1","parameterCategory":1,"la1":30.6,"la2":29.2853,"lo1":-89.7004,"lo2":-87.6739,"dy":0.0162,"dx":0.0183,"nx":112,"ny":82,"refTime":"2024-08-25T12:00:00:Z","depth":0,"parameterNumber":3,"parameterNumberName":"V-component_of_WINDS"},"data":[0.0,0.0,0.0,0.0,0.0,0.0,0.0,0.0,0.0,0.0,0.0,0.0,0.0,0.0,0.0,0.0,0.0,0.0,0.0,0.0,0.0,0.0,0.0,0.0,0.0,0.0,0.0,0.0,0.0,0.0,0.0,0.0,0.0,0.0,0.0,0.0,0.0,0.0,0.0,0.0,0.0,0.0,0.0,0.0,0.0,0.0,0.0,0.0,0.0,0.0,0.0,0.0,0.0,0.0,0.0,0.0,0.0,0.0,0.0,0.0,0.0,0.0,0.0,0.0,0.0,0.0,0.0,0.0,0.0,0.0,0.0,0.0,0.0,0.0,0.0,0.0,0.0,0.0,0.0,0.0,0.0,0.0,0.0,0.0,0.0,0.0,0.0,0.0,0.0,0.0,0.8513,0.9055,1.0679,1.1615,1.1318,1.1692,1.1396,1.0068,0.0,0.0,0.0,0.0,0.0,0.0,0.0,0.0,0.0,0.0,0.0,0.0,0.0,0.0,0.0,0.0,0.0,0.0,0.0,0.0,0.0,0.0,0.0,0.0,0.0,0.0,0.0,0.0,0.0,0.0,0.0,0.0,0.0,0.0,0.0,0.0,0.0,0.0,0.0,0.0,0.0,0.0,0.0,0.0,0.0,0.0,0.0,0.0,0.0,0.0,0.0,0.0,0.0,0.0,0.0,0.0,0.0,0.0,0.0,0.0,0.0,0.0,0.0,0.0,0.0,0.0,0.0,0.0,0.0,0.0,0.0,0.0,0.0,0.0,0.0,0.0,0.0,0.0,0.0,0.0,0.0,0.0,0.0,0.0,0.0,0.0,0.0,0.0,0.0,0.0,0.0,0.0,0.0,0.0,0.0,0.0,0.0,0.0,0.0,0.0,0.0,0.0,0.0,0.0,0.7888,1.0259,1.1016,1.1352,1.1296,1.1017,1.0456,0.9565,0.0,0.0,0.0,0.0,0.0,0.0,0.0,0.0,0.0,0.0,0.0,0.0,0.0,0.0,0.0,0.0,0.0,0.0,0.0,0.0,0.0,0.0,0.0,0.0,0.0,0.0,0.0,0.0,0.0,0.0,0.0,0.0,0.0,0.0,0.0,0.0,0.0,0.0,0.0,0.0,0.0,0.0,0.0,0.0,0.0,0.0,0.0,0.0,0.0,0.0,0.0,0.0,0.0,0.0,0.0,0.0,0.0,0.0,0.0,0.0,0.0,0.0,0.0,0.0,0.0,0.0,0.0,0.0,0.0,0.0,0.0,0.0,0.0,0.0,0.0,0.0,0.0,0.0,0.0,0.0,0.0,0.0,0.0,0.0,0.0,0.0,0.0,0.0,0.0,0.0,0.0,0.0,0.0,0.0,0.0,0.0,0.0,0.0,0.0,0.0,0.0,0.0,0.0,0.7407,0.8945,1.0866,1.1216,1.1296,1.1296,1.11,1.0542,0.9513,0.8525,0.0,0.0,0.0,0.0,0.0,0.0,0.0,0.0,0.0,0.0,0.0,0.0,0.0,0.0,0.0,0.0,0.0,0.0,0.0,0.0,0.0,0.0,0.0,0.0,0.0,0.0,0.0,0.0,0.0,0.0,0.0,0.0,0.0,0.0,0.0,0.0,0.0,0.0,0.0,0.0,0.0,0.0,0.0,0.0,0.0,0.0,0.0,0.0,0.0,0.0,0.0,0.0,0.0,0.0,0.0,0.0,0.0,0.0,0.0,0.0,0.0,0.0,0.0,0.0,0.0,0.0,0.0,0.0,0.0,0.0,0.0,0.0,0.0,0.0,0.0,0.0,0.0,0.0,0.0,0.0,0.0,0.0,0.0,0.0,0.0,0.0,0.0,0.0,0.0,0.0,0.0,0.0,0.0,0.0,0.0,0.0,0.0,0.0,0.0,0.0,0.0,0.0,0.9083,0.9995,1.1278,1.1341,1.1296,1.1296,1.1166,1.061,0.9471,0.8217,0.0,0.0,0.0,0.0,0.0,0.0,0.0,0.0,0.0,0.0,0.0,0.0,0.0,0.0,0.0,0.0,0.0,0.0,0.0,0.0,0.0,0.0,0.0,0.0,0.0,0.0,0.0,0.0,0.0,0.0,0.0,0.0,0.0,0.0,0.0,0.0,0.0,0.0,0.0,0.0,0.0,0.0,0.0,0.0,0.0,0.0,0.0,0.0,0.0,0.0,0.0,0.0,0.0,0.0,0.0,0.0,0.0,0.0,0.0,0.0,0.0,0.0,0.0,0.0,0.0,0.0,0.0,0.0,0.0,0.0,0.0,0.0,0.0,0.0,0.0,0.0,0.0,0.0,0.0,0.0,0.0,0.0,0.0,0.0,0.0,0.0,0.0,0.0,0.0,0.0,0.0,0.0,0.0,0.0,0.0,0.0,0.0,0.0,0.0,0.0,0.0,0.0,0.9083,1.0084,1.1602,1.149,1.1296,1.1296,1.0782,1.0086,0.9192,0.7764,0.0,0.0,0.0,0.0,0.0,0.0,0.0,0.0,0.0,0.0,0.0,0.0,0.0,0.0,0.0,0.0,0.0,0.0,0.0,0.0,0.0,0.0,0.0,0.0,0.0,0.0,0.0,0.0,0.0,0.0,0.0,0.0,0.0,0.0,0.0,0.0,0.0,0.0,0.0,0.0,0.0,0.0,0.0,0.0,0.0,0.0,0.0,0.0,0.0,0.0,0.0,0.0,0.0,0.0,0.0,0.0,0.0,0.0,0.0,0.0,0.0,0.0,0.0,0.0,0.0,0.0,0.0,0.0,0.0,0.0,0.0,0.0,0.0,0.0,0.0,0.0,0.0,0.0,0.0,0.0,0.0,0.0,0.0,0.0,0.0,0.0,0.0,0.0,0.0,0.0,0.0,0.0,0.0,0.0,0.0,0.0,0.0,0.0,0.0,0.0,0.0,0.0,0.9416,1.0341,0.0,1.1745,1.1567,1.1612,1.0871,1.005,0.9224,0.0,0.0,0.0,0.0,0.0,0.0,0.0,0.0,0.0,0.0,0.0,0.0,0.0,0.0,0.0,0.0,0.0,0.0,0.0,0.0,0.0,0.0,0.0,0.0,0.0,0.0,0.0,0.0,0.0,0.0,0.0,0.0,0.0,0.0,0.0,0.0,0.0,0.0,0.0,0.0,0.0,0.0,0.0,0.0,0.0,0.0,0.0,0.0,0.0,0.0,0.0,0.0,0.0,0.0,0.0,0.0,0.0,0.0,0.0,0.0,0.0,0.0,0.0,0.0,0.0,0.0,0.0,0.0,0.0,0.0,0.0,0.0,0.0,0.0,0.0,0.0,0.0,0.0,0.0,0.0,0.0,0.0,0.0,0.0,0.0,0.0,0.0,0.0,0.0,0.0,0.0,0.0,0.0,0.0,0.0,0.0,0.0,0.0,0.0,0.0,0.0,0.0,0.8959,0.9698,1.0544,0.0,1.193,1.1745,1.179,1.0843,0.9966,0.9341,0.0,0.0,0.0,0.0,0.0,0.0,0.0,0.0,0.0,0.0,0.0,0.0,0.0,0.0,0.0,0.0,0.0,0.0,0.0,0.0,0.0,0.0,0.0,0.0,0.0,0.0,0.0,0.0,0.0,0.0,0.0,0.0,0.0,0.0,0.0,0.0,0.0,0.0,0.0,0.0,0.0,0.0,0.0,0.0,0.0,0.0,0.0,0.0,0.0,0.0,0.0,0.0,0.0,0.0,0.0,0.0,0.0,0.0,0.0,0.0,0.0,0.0,0.0,0.0,0.0,0.0,0.0,0.0,0.0,0.0,0.0,0.0,0.0,0.0,0.0,0.0,0.0,0.0,0.0,0.0,0.0,0.0,0.0,0.0,0.0,0.0,0.0,0.0,0.0,0.0,0.0,0.0,0.0,0.0,0.0,0.0,0.0,0.0,0.0,0.0,0.0,0.0,0.9268,0.9909,1.0638,1.205,1.1976,1.1816,1.179,1.0633,0.9793,0.0,0.0,0.0,0.0,0.0,0.0,0.0,0.0,0.0,0.0,0.0,0.0,0.0,0.0,0.0,0.0,0.0,0.0,0.0,0.0,0.0,0.0,0.0,0.0,0.0,0.0,0.0,0.0,0.0,0.0,0.0,0.0,0.0,0.0,0.0,0.0,0.0,0.0,0.0,0.0,0.0,0.0,0.0,0.0,0.0,0.0,0.0,0.0,0.0,0.0,0.0,0.0,0.0,0.0,0.0,0.0,0.0,0.0,0.0,0.0,0.0,0.0,0.0,0.0,0.0,0.0,0.0,0.0,0.0,0.0,0.0,0.0,0.0,0.0,0.0,0.0,0.0,0.0,0.0,0.0,0.0,0.0,0.0,0.0,0.0,0.0,0.0,0.0,0.0,0.0,0.0,0.0,0.0,0.0,0.0,0.0,0.0,0.0,0.0,0.0,0.0,0.0,0.0,0.9738,1.0252,1.0921,1.2332,1.2416,1.2286,1.2097,1.1001,1.0166,0.9806,0.0,0.0,0.0,0.0,0.0,0.0,0.0,0.0,0.0,0.0,0.0,0.0,0.0,0.0,0.0,0.0,0.0,0.0,0.0,0.0,0.0,0.0,0.0,0.0,0.0,0.0,0.0,0.0,0.0,0.0,0.0,0.0,0.0,0.0,0.0,0.0,0.0,0.0,0.0,0.0,0.0,0.0,0.0,0.0,0.0,0.0,0.0,0.0,0.0,0.0,0.0,0.0,0.0,0.0,0.0,0.0,0.0,0.0,0.0,0.0,0.0,0.0,0.0,0.0,0.0,0.0,0.0,0.0,0.0,0.0,0.0,0.0,0.0,0.0,0.0,0.0,0.0,0.0,0.0,0.0,0.0,0.0,0.0,0.0,0.0,0.0,0.0,0.0,0.0,0.0,0.0,0.0,0.0,0.0,0.0,0.0,0.0,0.0,0.0,0.0,0.0,0.0,1.0165,1.0599,1.1164,1.2614,1.2658,1.2533,1.2366,1.148,1.0709,1.0176,0.0,0.0,0.0,0.0,0.0,0.0,0.0,0.0,0.0,0.0,0.0,0.0,0.0,0.0,0.0,0.0,0.0,0.0,0.0,0.0,0.0,0.0,0.0,0.0,0.0,0.0,0.0,0.0,0.0,0.0,0.0,0.0,0.0,0.0,0.0,0.0,0.0,0.0,0.0,0.0,0.0,0.0,0.0,0.0,0.0,0.0,0.0,0.0,0.0,0.0,0.0,0.0,0.0,0.0,0.0,0.0,0.0,0.0,0.0,0.0,0.0,0.0,0.0,0.0,0.0,0.0,0.0,0.0,0.0,0.0,0.0,0.0,0.0,0.0,0.0,0.0,0.0,0.0,0.0,0.0,0.0,0.0,0.0,0.0,0.0,0.0,0.0,0.0,0.0,0.0,0.0,0.0,0.0,0.0,0.0,0.0,0.0,0.0,0.0,0.0,0.0,0.0,1.0518,1.0927,1.1473,1.2892,1.2797,1.2639,1.2639,1.2042,1.1349,1.0583,0.0,0.0,0.0,0.0,0.0,0.0,0.0,0.0,0.0,0.0,0.0,0.0,0.0,0.0,0.0,0.0,0.0,0.0,0.0,0.0,0.0,0.0,0.0,0.0,0.0,0.0,0.0,0.0,0.0,0.0,0.0,0.0,0.0,0.0,0.0,0.0,0.0,0.0,0.0,0.0,0.0,0.0,0.0,0.0,0.0,0.0,0.0,0.0,0.0,0.0,0.0,0.0,0.0,0.0,0.0,0.0,0.0,0.0,0.0,0.0,0.5072,0.4309,0.0,0.0,0.0,0.0,0.0,0.0,0.0,0.0,0.0,0.0,0.0,0.0,0.0,0.0,0.0,0.0,0.0,0.0,0.0,0.0,0.0,0.0,0.0,0.0,0.0,0.0,0.0,0.0,0.0,0.0,0.0,0.0,0.0,0.0,0.0,0.0,0.0,0.0,0.0,0.0,1.0596,1.149,1.2234,1.3152,1.3043,1.2915,1.2915,1.2448,1.1773,1.0872,0.9501,0.0,0.0,0.0,0.0,0.0,0.0,0.0,0.0,0.0,0.0,0.0,0.0,0.0,0.0,0.0,0.0,0.0,0.0,0.0,0.0,0.0,0.0,0.0,0.0,0.0,0.0,0.0,0.0,0.0,0.0,0.0,0.0,0.0,0.0,0.0,0.0,0.0,0.0,0.0,0.0,0.0,0.0,0.0,0.0,0.0,0.0,0.0,0.0,0.0,0.0,0.0,0.0,0.0,0.0,0.0,0.0,0.0,0.0,0.0,0.6933,0.601,0.0,0.0,0.0,0.0,0.0,0.0,0.0,0.0,0.0,0.0,0.0,0.0,0.0,0.0,0.0,0.0,0.0,0.0,0.0,0.0,0.0,0.0,0.0,0.0,0.0,0.0,0.0,0.0,0.0,0.0,0.0,0.0,0.0,0.0,0.0,0.0,0.0,0.0,0.0,0.0,1.0763,1.1788,1.2599,1.3278,1.3244,1.3218,1.3278,1.3007,1.2499,1.1725,1.0558,0.0,0.0,0.0,0.0,0.0,0.0,0.0,0.0,0.0,0.0,0.0,0.0,0.0,0.0,0.0,0.0,0.0,0.0,0.0,0.0,0.0,0.0,0.0,0.0,0.0,0.0,0.0,0.0,0.0,0.0,0.0,0.0,0.0,0.0,0.0,0.0,0.0,0.0,0.0,0.0,0.0,0.0,0.0,0.0,0.0,0.0,0.0,0.0,0.0,0.0,0.0,0.0,0.0,1.1119,1.0766,1.1072,1.0799,1.091,1.123,0.9513,0.8643,0.833,0.7345,0.0,0.0,0.0,0.0,0.0,0.0,0.0,0.0,0.0,0.0,0.0,0.0,0.0,0.0,0.0,0.0,0.0,0.0,0.0,0.0,0.0,0.0,1.1416,1.2071,1.2373,1.1895,0.9741,0.0,0.0,0.0,0.0,0.0,0.0,0.0,0.0,0.0,0.0,0.0,1.1192,1.2221,1.2985,1.3491,1.3511,1.3517,1.3648,1.3549,1.3201,1.2536,1.1771,1.0713,0.0,0.0,0.0,0.0,0.0,0.0,0.0,0.0,0.0,0.0,0.0,0.0,0.0,0.0,0.0,0.0,0.0,0.0,0.0,0.0,0.0,0.0,0.0,0.0,0.0,0.0,0.0,0.0,0.0,0.0,0.0,0.0,0.4953,0.5307,0.0,0.0,0.0,0.0,0.0,0.0,0.0,0.0,0.0,0.0,0.0,0.0,0.0,0.936,1.0567,1.135,1.2012,1.2567,1.3329,1.3585,1.3374,1.3894,1.3866,1.3417,1.3707,0.0,1.0366,0.9762,0.0,0.0,0.0,0.0,0.0,0.0,0.0,0.0,0.0,0.0,0.0,0.0,0.0,0.0,0.0,0.0,0.0,0.0,0.0,0.0,0.0,0.0,1.4249,1.4378,1.4405,1.4346,1.3987,1.2426,1.0824,1.0005,0.9611,0.8922,0.0,0.0,0.0,0.0,0.0,0.0,1.2376,1.3403,1.4015,1.4096,1.3934,1.3842,1.3863,1.3849,1.3443,1.2557,1.2383,1.1857,1.0856,0.9586,0.0,0.0,0.0,0.0,0.0,0.0,0.0,0.0,0.0,0.0,0.0,0.0,0.0,0.0,0.0,0.0,0.0,0.0,0.0,0.0,0.0,0.0,0.0,0.0,0.0,0.0,0.0,0.0,0.0,0.5247,0.6131,0.6581,0.6834,0.6714,0.0,0.0,0.0,0.0,0.0,0.0,0.0,0.0,0.0,1.2407,1.1495,1.1996,1.4124,1.4213,1.4527,1.5139,1.6443,1.6683,1.6016,1.656,1.6514,1.5999,1.607,1.5552,1.4515,1.2348,1.1082,1.0395,0.0,0.0,0.0,0.0,1.0012,1.0223,1.1791,1.2133,1.1939,1.2224,0.0,0.0,0.0,0.0,0.0,0.0,0.0,1.3746,1.4943,1.5927,1.6645,1.6795,1.6819,1.6752,1.653,1.5486,1.4176,1.2775,1.2781,1.2259,0.9838,0.9887,0.0,0.0,0.0,1.2919,1.4016,1.4965,1.5515,1.544,1.4916,1.4624,1.4723,1.4225,1.3779,1.3476,1.2964,1.2425,1.1902,1.0986,1.0,0.0,0.0,0.0,0.0,0.0,0.0,0.0,0.0,0.0,0.0,0.0,0.0,0.0,0.0,0.0,0.0,0.0,0.0,0.0,0.0,0.0,0.0,0.0,0.0,0.0,0.0,0.0,0.0,0.6377,0.7445,0.7657,0.8513,0.8701,0.0,0.0,0.0,0.0,0.0,0.0,1.2053,1.2862,1.4036,1.5652,1.4837,1.5356,1.7321,1.7046,1.7208,1.7853,1.8905,1.8999,1.831,1.8827,1.878,1.8262,1.8037,1.8006,1.7888,1.4773,1.3221,1.2732,1.2014,1.1689,1.1679,1.2303,1.2409,1.247,1.4282,1.4656,1.4344,1.4519,1.4581,1.4427,1.3363,0.0,0.0,0.0,0.0,1.5912,1.728,1.8065,1.8578,1.8876,1.8939,1.8874,1.8659,1.835,1.7472,1.5361,1.5447,1.5064,1.2505,1.2655,0.0,1.2446,1.3565,1.4738,1.5537,1.624,1.6646,1.6543,1.5946,1.5548,1.5474,1.4792,1.4307,1.4206,1.3535,1.307,1.2871,1.2284,1.1364,1.0073,0.0,0.0,0.0,0.0,0.0,0.0,0.0,0.0,0.0,0.0,0.0,0.0,0.0,0.0,0.0,0.0,0.0,0.0,0.0,0.0,0.0,0.0,0.0,0.0,0.0,0.0,0.0,0.0,0.0,0.7989,1.0034,0.0,0.0,0.0,0.0,1.2247,1.2345,1.3102,1.4721,1.5735,1.7026,1.8638,1.9786,2.0049,1.9365,1.9703,1.9879,1.9871,1.9934,1.9934,1.9904,2.0575,2.0511,1.9889,2.0059,1.9831,1.9135,1.6863,1.5975,1.5998,1.5313,1.4858,1.4631,1.4991,1.5503,1.6074,1.644,1.6562,1.6651,1.7294,1.6953,1.6346,1.6638,1.6358,0.0,0.0,1.7539,1.8472,1.9194,1.964,1.9984,2.0315,2.0385,2.0471,2.0771,2.083,2.0048,1.7464,1.6642,1.6074,1.5159,0.0,1.5106,1.5273,1.5379,1.5764,1.6691,1.6858,1.687,1.6888,1.6844,1.6503,1.5759,1.5643,1.5208,1.4262,1.4152,1.4031,1.3828,1.313,1.27,1.2622,1.0504,0.0,0.0,0.0,0.0,0.0,0.0,0.0,0.0,0.0,0.0,0.0,0.0,0.0,0.0,0.0,0.0,0.0,0.0,0.0,0.0,0.0,0.0,0.0,0.0,0.0,0.0,0.0,0.0,1.0656,1.2361,0.0,1.2528,1.3725,1.4656,1.4856,1.6162,1.7291,1.8109,1.8944,1.9874,2.0923,2.1114,2.1344,2.1679,2.1966,2.1971,2.1738,2.2095,2.1892,2.1226,2.156,2.1427,2.0959,2.0799,2.0621,2.0368,1.9576,1.8433,1.7181,1.6928,1.6776,1.6713,1.7151,1.7256,1.726,1.7654,1.7792,1.7899,1.8625,1.8639,1.8466,1.8808,1.8785,1.8809,1.9704,2.0223,2.071,2.1648,2.1967,2.1971,2.1609,2.1537,2.143,2.1068,2.1143,2.0989,2.0042,1.9722,1.9056,1.7245,1.7438,1.7483,1.6428,1.6782,1.7485,1.8328,1.8445,1.8445,1.8445,1.7979,1.7557,1.727,1.6298,1.5545,1.519,1.4684,1.4301,1.411,1.3967,1.3347,1.2186,1.1499,1.0362,0.0,0.0,0.0,0.0,0.0,0.0,0.0,0.0,0.0,0.0,0.0,0.0,0.0,0.0,0.0,0.0,0.0,0.0,0.0,0.0,0.0,0.0,0.0,0.0,0.0,1.136,1.3025,1.2706,1.4624,1.5695,1.4995,1.6475,1.7578,1.7808,1.9206,2.0258,2.0715,2.127,2.191,2.265,2.2371,2.25,2.3106,2.3229,2.3165,2.2879,2.3241,2.3023,2.234,2.2426,2.2323,2.206,2.1576,2.1442,2.1529,2.1273,2.0351,1.9108,1.8886,1.8805,1.8837,1.9171,1.9092,1.8868,1.9171,1.928,1.9372,2.0009,2.0287,2.0434,2.0798,2.0993,2.1229,2.1934,2.2134,2.2305,2.3018,2.32,2.31,2.2727,2.2642,2.2543,2.216,2.222,2.2335,2.2335,2.1916,2.1043,1.949,1.9727,1.9651,1.8194,1.8503,1.8996,1.9279,1.9297,1.9297,1.9297,1.8871,1.8509,1.822,1.6971,1.609,1.5846,1.5004,1.4452,1.4368,1.4195,1.3532,1.233,1.2174,1.1177,0.9301,0.0,0.0,0.0,0.0,0.0,0.0,0.0,0.0,0.0,0.0,0.0,0.0,0.0,0.0,0.0,0.0,0.0,0.0,0.0,0.0,0.0,0.0,0.0,1.1278,1.3226,1.4557,1.4054,1.684,1.8512,1.7728,1.972,2.108,2.109,2.1274,2.1706,2.2439,2.2658,2.3087,2.3823,2.3832,2.3745,2.3547,2.3536,2.3422,2.3236,2.3224,2.3224,2.3224,2.3212,2.323,2.3177,2.2447,2.2323,2.2561,2.1859,2.1711,2.1883,2.1271,2.1039,2.1039,2.1039,2.1039,2.1039,2.1039,2.1039,2.1102,2.1521,2.1874,2.2207,2.2587,2.2947,2.32,2.3212,2.323,2.3212,2.3224,2.3224,2.3305,2.3649,2.3714,2.3806,2.4141,2.4199,2.4209,2.4209,2.2969,2.1885,2.1831,2.1831,2.1537,2.0684,2.0556,0.0,1.9467,1.9357,1.9331,1.9305,1.9492,1.9286,1.8503,1.7676,1.6903,1.6187,1.5112,1.4578,1.4707,1.3829,1.3322,1.3298,1.2504,1.1728,1.0948,0.0,0.0,0.0,0.0,0.0,0.0,0.0,0.0,0.0,0.0,0.0,0.0,0.0,0.0,0.0,0.0,0.0,0.0,0.0,0.0,0.0,1.425,1.5746,1.445,1.6428,1.8067,1.8216,2.0043,2.1225,2.1005,2.1914,2.259,2.2797,2.3211,2.3665,2.411,2.4192,2.4317,2.4518,2.4537,2.4495,2.4439,2.4308,2.4201,2.4137,2.3999,2.3927,2.3917,2.3671,2.3566,2.3544,2.3088,2.2949,2.3022,2.282,2.2778,2.2755,2.1961,2.1663,2.1692,2.2037,2.2004,2.1797,2.1797,2.1797,2.1895,2.2556,2.2813,2.2917,2.3033,2.3129,2.3247,2.3482,2.3566,2.3628,2.3847,2.3927,2.3937,2.4036,2.4064,2.4084,2.418,2.4321,2.4428,2.4428,2.4172,2.3702,2.2821,2.2666,2.2416,2.1691,2.1592,2.1347,2.0689,2.0615,2.0331,1.959,1.9644,1.962,1.9292,1.8033,1.7199,1.697,1.5602,1.4818,1.4836,1.4498,1.3997,1.3304,1.2504,1.1985,0.0,0.0,0.0,0.0,0.0,0.0,0.0,0.0,0.0,0.0,0.0,0.0,0.0,0.0,0.0,0.0,0.0,0.0,0.0,0.0,0.0,0.0,1.6784,1.8365,1.8504,1.9613,2.0591,2.0982,2.2079,2.283,2.2918,2.3453,2.3877,2.4023,2.4398,2.4672,2.4871,2.4962,2.5019,2.5019,2.5019,2.4968,2.4877,2.4773,2.4689,2.4623,2.4512,2.441,2.433,2.4126,2.3981,2.3896,2.3555,2.35,2.3599,2.3477,2.35,2.3537,0.0,0.0,0.0,0.0,2.2728,2.2552,2.2552,2.2552,2.2617,2.3052,2.33,2.3403,2.3403,2.3511,2.366,2.3847,2.3907,2.3947,2.4151,2.4257,2.433,2.433,2.4393,2.4444,2.4444,2.4534,2.4623,2.4623,2.4723,0.0,2.3861,2.3737,2.3489,2.2738,2.2628,2.2381,2.1683,2.1298,2.0884,2.0295,2.0028,1.9852,1.978,1.8636,0.0,0.0,0.0,1.5624,1.4921,1.5174,0.0,0.0,0.0,0.0,0.0,1.4573,0.0,0.0,1.3673,1.434,0.0,0.0,0.0,0.0,0.0,0.0,0.0,0.0,0.0,0.0,0.0,0.0,0.0,0.0,0.0,0.0,1.9173,2.0527,2.2549,2.2587,2.2489,2.2765,2.3336,2.3789,2.3951,2.4525,2.4869,2.4867,2.4968,2.5034,2.5034,2.5208,0.0,0.0,0.0,2.5214,2.5034,2.5016,2.4937,2.4814,2.4811,2.4708,2.4537,2.4512,2.4419,2.4247,2.3917,2.3958,2.4238,2.3929,2.3969,2.4191,2.3559,2.3305,2.3311,2.3259,2.3265,2.3265,2.3265,0.0,0.0,2.3311,2.3522,2.3764,2.3764,2.3958,2.4199,2.4228,2.4237,2.4247,2.4257,2.4401,2.4518,2.4518,2.467,2.4804,2.4804,2.4818,2.4814,2.4814,2.4847,2.4861,2.4861,2.4825,2.4547,2.3781,2.3674,2.3385,2.2602,2.1888,2.1384,2.1272,2.0605,0.0,2.0146,1.9334,1.8869,1.8988,1.8003,1.6766,1.5275,1.5951,1.5927,1.5022,1.5705,1.6345,1.6923,1.7126,1.7186,1.7147,1.5704,1.6181,0.0,0.0,0.0,0.0,0.0,0.0,0.0,0.0,0.0,0.0,0.0,0.0,0.0,0.0,0.0,1.9229,2.1439,2.3165,2.3608,2.4327,2.461,2.4039,2.4645,2.5114,2.5089,2.5215,2.5259,2.5203,2.5238,2.5229,2.5229,2.5274,2.5308,2.5308,2.5308,2.5274,2.5234,2.5088,2.4992,2.4955,2.4855,0.0,2.4738,2.4567,2.4578,2.4662,2.4266,2.4321,2.467,2.4451,2.4485,2.4639,2.4173,2.4006,2.3976,2.3703,2.3599,2.3599,2.3599,2.3599,2.3649,2.3917,2.4054,2.4103,2.4103,2.4151,0.0,2.4401,2.4435,2.4478,2.4639,2.4716,2.4746,2.4746,2.4775,2.4804,2.4804,2.4877,2.4962,2.4962,2.5096,2.5192,2.5192,2.4987,2.4778,2.4715,2.4714,2.4476,2.3836,2.3621,2.3203,2.2405,2.1656,2.1166,2.1066,1.9773,1.8977,1.8992,1.8155,1.7466,1.7085,1.7238,1.7191,1.689,1.7037,1.7125,1.7138,1.8433,1.8983,1.8831,1.8526,1.8618,0.0,0.0,0.0,0.0,0.0,0.0,0.0,0.0,0.0,0.0,0.0,1.6692,1.7848,0.0,2.037,2.163,2.304,2.414,2.4685,2.5211,2.5387,2.4953,2.526,2.5498,2.5443,2.5415,2.5383,2.535,2.5327,2.5308,2.5308,2.5308,2.5308,2.5308,2.5308,2.5308,2.5308,2.5203,2.5152,2.5152,2.5078,2.5,2.4897,2.4802,2.4759,2.479,2.4583,2.4607,2.479,2.4693,2.4708,2.4782,2.4575,2.4435,2.433,2.4155,2.4107,2.4088,2.3988,2.4079,2.4255,2.433,2.4428,2.4503,2.4503,2.4503,2.4528,2.4615,2.4647,2.467,2.4775,2.4849,2.4897,2.4897,2.4981,2.5056,2.5056,2.5101,2.5152,2.5152,2.5224,2.5308,2.5308,2.5154,2.5066,2.5141,2.5152,2.5044,2.4745,2.4356,2.3914,2.3395,2.2627,2.2117,2.2063,2.0937,2.0085,1.9681,1.9234,1.8793,1.8313,1.8712,1.8873,1.8693,1.9125,1.9476,1.9744,2.0552,2.0894,2.0812,2.1204,2.1302,0.0,0.0,0.0,0.0,0.0,0.0,0.0,0.0,1.5722,1.739,1.8267,1.9172,2.0629,2.1443,2.2417,2.4041,2.4311,2.4608,2.5478,2.5606,2.5601,2.5549,2.5543,2.552,2.5529,2.5462,2.5404,2.539,2.5346,2.5327,2.5327,2.533,2.5421,2.5599,2.5572,2.5654,2.5813,2.5803,2.5808,2.5808,2.5808,2.5718,2.5554,2.5519,2.5469,2.5389,2.5219,2.5134,2.5088,2.4952,2.4908,2.4908,2.4908,2.4771,2.4588,2.4567,2.4569,2.4545,2.4375,2.4537,2.4775,2.4607,2.467,2.4804,2.4804,2.4804,2.4811,2.4828,2.4835,2.4842,2.4895,2.4974,2.5071,2.5071,2.5173,2.5308,2.5308,2.5308,2.5308,2.5308,2.5308,2.5308,2.5308,2.5308,2.5308,2.5308,2.5308,2.5308,2.5308,2.4736,2.4336,2.4336,2.3567,2.299,2.2816,2.2158,2.1485,2.0827,2.0788,2.0465,1.9761,2.0408,2.0713,2.0547,2.123,2.1836,2.2369,2.252,2.2578,2.2546,2.3364,2.3525,1.3181,1.4188,1.5215,1.5975,1.6209,1.7028,0.0,0.0,2.0157,2.1845,2.23,2.2674,2.3574,2.3867,2.426,2.5172,2.5371,2.5458,2.5581,2.5658,2.5683,2.5683,2.5682,2.5659,2.5599,2.5535,2.5451,2.5406,2.5395,2.5395,2.5395,2.545,2.5821,2.6607,2.6578,2.6916,2.7683,2.7648,2.7601,2.7601,2.7601,2.7596,2.758,2.7395,2.7395,2.75,2.6732,2.629,2.6092,2.5483,2.5243,2.5243,2.5243,2.5124,2.4937,2.4814,2.4768,2.4768,2.4746,2.476,2.4797,2.4775,2.4782,2.4804,2.4804,2.4804,2.4814,2.4937,2.498,2.501,2.5192,2.5253,2.5269,2.5269,2.5279,2.5308,2.5308,2.5308,2.5308,2.5308,2.5308,2.5308,2.5308,2.5308,2.5308,2.5308,2.5308,2.5308,2.5308,2.5212,2.5173,2.5173,2.4432,2.3644,2.2874,2.272,2.2624,2.2528,2.2528,2.2489,2.2374,2.247,2.25,2.2491,2.2587,2.2604,2.2577,2.3284,2.3537,2.3383,2.4257,2.4216,1.5685,1.6384,1.6845,0.0,1.8499,1.9535,2.1153,2.1214,2.1436,2.3273,2.3678,2.3976,2.484,2.5039,2.5173,0.0,2.5636,2.566,2.566,2.5683,2.5703,2.5703,2.5703,2.5683,2.5661,2.5601,2.5549,2.5524,2.549,2.5468,2.5468,2.5967,2.6413,2.6785,2.726,2.7663,2.7993,2.7963,2.7938,2.7895,2.7895,2.7895,2.789,2.7816,2.7821,2.7876,2.7505,2.73,2.7211,2.6927,2.6813,2.6813,2.6813,2.6455,2.5847,2.5177,2.4923,2.491,2.484,2.4935,2.5061,2.4949,2.5006,2.5091,2.5091,2.5091,2.5109,2.5152,2.5168,2.5184,2.5274,2.5308,2.5308,2.5308,2.5308,2.5308,2.5308,2.5308,2.5308,2.5308,2.5308,2.5308,2.5308,2.5308,2.5308,2.5308,2.5308,2.5308,2.5308,2.5308,2.5308,2.5308,2.5,2.4466,2.3624,2.3567,2.3336,2.2836,2.2797,2.2797,2.2797,2.2797,2.3047,2.3548,2.3567,2.3755,2.4162,2.4516,2.4624,2.4549,2.4925,2.4906,1.7327,1.802,0.0,1.9365,2.0715,2.1899,2.2106,2.2286,2.2795,2.4206,2.4524,2.4739,2.5442,2.5595,2.561,2.5683,2.5703,2.5703,2.5703,2.5703,2.5703,2.5703,2.5703,2.5703,2.5703,2.5636,2.5602,2.5602,2.5556,2.5632,2.5868,2.6507,2.7082,2.7551,2.8164,2.8561,2.8735,2.8718,2.8662,2.8647,2.8627,2.8627,2.8642,2.8627,2.8606,2.8582,2.8338,2.8222,2.8203,2.7992,2.7895,2.7895,2.7895,2.7505,2.686,2.609,2.5495,2.5071,2.4975,2.5097,2.5274,2.5141,2.5173,2.5308,2.5308,2.5308,2.5308,2.5308,2.5308,2.5308,2.5308,2.5308,2.5308,2.5308,2.5308,2.5308,2.5308,2.5308,2.5308,2.5308,2.5308,2.5308,2.5308,2.5308,2.5308,2.5308,2.5308,2.5308,2.5308,2.5308,2.5308,2.5308,2.5308,2.5058,2.449,2.4432,2.4163,2.3524,2.3485,2.3485,2.3485,2.3485,2.3793,2.4413,2.4432,2.4716,2.5308,2.5308,2.5308,2.5308,2.5308,2.5308,0.0,0.0,2.0345,2.1275,2.2774,2.4009,2.4014,2.462,2.5192,2.526,2.532,2.5386,2.5481,2.5556,2.561,2.5683,2.5703,2.5703,2.5703,2.5703,2.5703,2.5703,2.5703,2.5703,2.5703,2.5636,2.5602,2.5602,2.5601,2.5971,2.6812,2.6949,2.7773,2.9453,2.9478,2.9833,3.0614,3.0487,3.0455,3.0519,3.0447,3.0455,3.0516,3.0447,3.039,3.0288,2.9429,2.9069,2.8992,2.8222,2.7895,2.7895,2.7895,2.7876,2.7857,2.7813,2.675,2.5279,2.5298,2.5298,2.5308,2.5284,2.5303,2.5308,2.5308,2.5308,2.5308,2.5308,2.5308,2.5308,2.5308,2.5308,2.5308,2.5308,2.5308,2.5308,2.5308,2.5308,2.5308,2.5308,2.5308,2.5308,2.5308,2.5308,2.5308,2.5308,2.5308,2.5308,2.5308,2.5308,2.5308,2.5308,2.5308,2.5288,2.5269,2.5269,2.525,2.5231,2.5231,2.5231,2.5231,2.5231,2.525,2.5269,2.5269,2.5288,2.5308,2.5308,2.5308,2.5308,2.5308,2.5308,1.9526,0.0,2.1768,2.2809,2.382,2.4588,2.4681,2.4908,2.5146,2.5269,2.4888,2.4567,2.463,2.4691,2.4769,2.4823,2.5312,2.5703,2.5703,2.5703,2.5703,2.5703,2.5703,2.5703,2.5703,2.5683,2.5661,2.5661,2.5661,2.6052,2.6911,2.7539,2.8398,2.9551,3.0135,3.0519,3.0695,3.0663,3.0611,3.0603,3.0575,3.0578,3.06,3.0529,3.0495,3.0448,3.0103,2.9967,2.9948,2.9673,2.9558,2.9558,2.9558,2.9217,2.8703,2.8703,2.7992,2.6948,2.6365,2.6154,2.6077,2.55,2.5308,2.5308,2.5308,2.5308,2.5308,2.5308,2.5308,2.5308,2.5308,2.5308,2.5308,2.5308,2.5308,2.5308,2.5308,2.5308,2.5308,2.5308,2.5308,2.5308,2.5308,2.5308,2.5308,2.5308,2.5308,2.5308,2.5308,2.5308,2.5308,2.5308,2.5308,2.5308,2.5308,2.5308,2.5308,2.5308,2.5308,2.5308,2.5308,2.5308,2.5308,2.5308,2.5308,2.5308,2.5308,2.5308,2.5308,2.5308,2.5308,2.5308,2.0878,2.1827,2.2452,2.3815,2.4484,2.4835,2.4968,2.5004,2.4975,2.4879,2.4221,2.3655,2.375,2.3547,2.3605,2.4296,2.4863,2.5332,2.5664,2.5703,2.5703,2.5703,2.5977,2.6152,0.0,0.0,0.0,2.5742,2.6289,2.6875,2.7422,2.8281,2.916,3.0039,3.0605,3.0858,3.077,3.0721,3.068,3.0643,3.0685,3.0683,3.0624,3.0597,3.0554,3.0533,3.0467,3.0449,3.0425,3.0408,3.0404,3.0404,3.0404,3.0058,2.9563,2.9563,2.9236,2.8621,2.7467,2.7063,2.6928,2.6058,2.5769,2.5712,2.5385,2.5308,2.5308,2.5308,2.5308,2.5308,2.5308,2.5308,2.5308,2.5308,2.5308,2.5308,2.5308,2.5308,2.5308,2.5308,2.5308,2.5308,2.5308,2.5308,2.5308,2.5308,2.5308,2.5308,2.5308,2.5308,2.5308,2.5308,2.5308,2.5308,2.5308,2.5308,2.5308,2.5308,2.5308,2.5308,2.5308,2.5308,2.5308,2.5308,2.5308,2.5308,2.5308,2.5308,2.5308,2.5308,2.5308,2.5308,2.1593,2.2092,2.2548,2.4346,2.4804,2.4835,2.4968,2.4966,2.4765,2.4159,2.3317,2.269,2.272,0.0,2.2241,2.3925,2.4355,2.4766,2.5586,2.5742,2.5762,0.0,0.0,0.0,0.0,0.0,0.0,2.5957,2.7363,2.832,2.8359,2.9141,3.0,3.0879,3.0898,3.0898,3.0898,3.0771,3.0717,3.0717,3.0837,3.0837,3.0717,3.0696,3.0671,3.0606,3.0537,3.0507,3.0498,3.0449,3.0408,3.0408,3.0416,3.0416,3.0396,3.0404,3.0404,3.0173,2.8582,2.8011,2.7818,2.6958,2.6664,2.6505,2.5683,2.5409,2.5365,2.5365,2.5327,2.5308,2.5308,2.5308,2.5308,2.5308,2.5308,2.5308,2.5308,2.5308,2.5308,2.5308,2.5308,2.5308,2.5308,2.5308,2.5308,2.5308,2.5308,2.5308,2.5308,2.5308,2.5308,2.5308,2.5308,2.5308,2.5308,2.5308,2.5308,2.5308,2.5308,2.5308,2.5308,2.5308,2.5308,2.5308,2.5308,2.5308,2.5308,2.5308,2.5308,2.5308,2.5308,2.5308,2.263,2.3412,2.4001,2.464,2.4804,2.4835,2.4968,2.4547,2.3913,2.327,2.1966,2.0565,1.9352,2.054,0.0,2.1519,2.3671,0.0,2.5664,2.6269,0.0,2.668,0.0,2.7969,2.7969,2.8769,0.0,2.7715,2.8047,2.8574,2.9238,2.9473,3.0,3.0879,3.0898,3.0898,3.0898,3.0878,3.0857,3.0857,3.0879,3.0879,3.0857,3.0745,3.0689,3.0675,3.0609,3.0571,3.0571,3.0567,3.0556,3.0548,3.0485,3.0472,3.0477,3.0425,3.0404,3.0346,2.9904,2.9333,2.8662,2.7898,2.7615,2.7545,2.7361,2.6819,2.6269,2.6269,2.5808,2.5308,2.5308,2.5308,2.5308,2.5308,2.5308,2.5308,2.5308,2.5308,2.5308,2.5308,2.5308,2.5308,2.5308,2.5308,2.5308,2.5308,2.5308,2.5308,2.5308,2.5308,2.5308,2.5308,2.5308,2.5308,2.5308,2.5308,2.5308,2.5308,2.5308,2.5308,2.5308,2.5308,2.5308,2.5308,2.5308,2.5308,2.5308,2.5308,2.5308,2.5308,2.5308,2.5308,2.3443,2.4014,2.4401,2.4512,2.4599,2.4509,2.391,2.3485,2.2718,2.0922,1.9523,1.8233,1.6935,1.8213,0.0,0.0,0.0,0.0,2.5605,2.6445,2.6992,0.0,2.8105,0.0,2.8867,2.9668,2.9961,2.9473,2.9434,2.9492,2.959,2.9961,3.0391,3.0879,3.0898,3.0898,3.0898,3.0898,3.0898,3.0898,3.0898,3.0898,3.0898,3.0816,3.0792,3.0771,3.0696,3.0633,3.065,3.0617,3.0603,3.06,3.0551,3.0529,3.0545,3.0498,3.0491,3.0491,3.0491,3.0167,2.9614,2.8799,2.8509,2.8415,2.8131,2.7678,2.7265,2.7265,2.6916,2.6432,2.6057,2.5944,2.5829,2.5434,2.5312,2.5308,2.5308,2.5308,2.5303,2.5339,2.5371,2.5387,2.5387,2.5387,2.5387,2.5387,2.5367,2.5333,2.5348,2.5322,2.5308,2.5308,2.5308,2.5308,2.5308,2.5308,2.5308,2.5308,2.5308,2.5308,2.5308,2.5308,2.5308,2.5308,2.5308,2.5308,2.5308,2.5308,2.5308,2.5308,2.5308,2.5308,2.4006,2.419,2.419,2.419,2.4348,2.4097,2.2555,2.2186,2.1286,1.8182,0.0,1.5928,1.5125,1.5877,1.7441,2.0019,0.0,2.3789,2.5469,2.6543,2.7168,2.7168,2.8711,2.9766,2.9766,3.0469,3.0898,3.0898,3.0898,3.0566,2.9805,3.0488,3.0898,3.0898,3.0898,3.0898,3.0898,3.0898,3.0898,3.0898,3.0898,3.0898,3.0898,3.0898,3.0898,3.0898,3.0771,3.0721,3.0718,3.0657,3.0633,3.0633,3.0623,3.062,3.0617,3.0609,3.0603,3.0603,3.0603,3.0603,3.0477,2.9659,2.9396,2.9268,2.8649,2.8355,2.8272,2.8272,2.8194,2.7921,2.7177,2.684,2.6511,2.5763,2.5456,2.534,2.534,2.534,2.5348,2.5402,2.5465,2.5491,2.5491,2.5491,2.5491,2.5491,2.5459,2.5404,2.5402,2.5344,2.5308,2.5308,2.5308,2.5308,2.5308,2.5308,2.5308,2.5308,2.5308,2.5293,2.5313,2.5313,2.5313,2.5313,2.5313,2.5303,2.5308,2.5308,2.5308,2.5308,2.5308,2.5308,2.4153,2.419,2.419,2.419,2.4348,2.4097,2.2555,2.128,0.0,0.0,1.549,1.4198,1.3382,1.5127,1.7311,1.9215,0.0,0.0,0.0,0.0,2.8066,0.0,2.9609,3.0664,3.0664,3.0801,0.0,3.0898,3.0898,3.082,3.0684,3.082,3.0898,3.0898,3.0898,3.0898,3.0898,3.0898,3.0898,3.0898,3.0898,3.0898,3.0898,3.0898,3.0898,3.0898,3.0878,3.0878,3.0858,3.0857,3.0856,3.0835,3.0735,3.0684,3.0679,3.0628,3.0603,3.0603,3.0603,3.0603,3.0573,3.0466,3.0404,3.0347,3.0262,2.9743,2.9174,2.9174,2.8656,2.8077,2.7902,2.7325,2.6748,2.6592,2.5993,2.5474,2.5474,2.5474,2.5477,2.549,2.5484,2.5491,2.5491,2.5491,2.5491,2.5491,2.5481,2.5451,2.542,2.5348,2.5308,2.5308,2.5308,2.5308,2.5308,2.5308,2.5308,2.5308,2.5308,2.5317,2.5379,2.5383,2.5383,2.5383,2.5383,2.5354,2.5308,2.5308,2.5308,2.5308,2.5308,2.5308,2.419,2.4275,2.4348,2.4348,2.4249,2.3591,2.1533,0.0,0.0,0.0,1.3565,1.2441,1.1593,0.0,0.0,0.0,0.0,0.0,0.0,0.0,0.0,0.0,0.0,3.0391,0.0,3.0898,3.0898,3.0898,3.0898,3.0898,3.0898,3.0898,3.0898,3.0898,3.0898,3.0898,3.0898,3.0898,3.0898,3.0898,3.0898,3.0898,3.0898,3.0898,3.0898,3.0898,3.0898,3.0898,3.0898,3.0898,3.0898,3.0898,3.0836,3.0794,3.0793,3.076,3.0753,3.0753,3.0753,3.0753,3.0757,3.0791,3.0737,3.0669,3.0768,3.0514,3.0172,3.0172,2.988,2.9453,2.9005,2.8543,2.8097,2.7647,2.7178,2.6727,2.6274,2.6201,2.6082,2.5632,2.5572,2.5603,2.5603,2.5603,2.5603,2.5603,2.5569,2.5545,2.5517,2.545,2.5387,2.5303,2.5308,2.5308,2.5308,2.5326,2.5346,2.535,2.5383,2.5415,2.5459,2.5459,2.5459,2.5459,2.5459,2.5438,2.539,2.5371,2.5342,2.5342,2.5317,2.5538,2.422,2.4419,2.4559,2.4559,2.4176,2.3122,2.057,1.8703,0.0,0.0,1.1976,1.1088,1.0599,0.0,1.4256,0.0,1.8008,2.0215,0.0,0.0,0.0,0.0,0.0,0.0,3.082,3.0898,0.0,3.0898,3.0898,3.0898,3.0898,3.0898,3.0898,3.0898,3.0898,3.0898,3.0898,3.0898,3.0898,3.0898,3.0898,3.0898,3.0898,3.0898,3.0898,3.0898,3.0898,3.0898,3.0898,3.0898,3.0898,3.0898,3.0898,3.0898,3.0898,3.0898,3.0898,3.0898,3.0898,3.0898,3.0898,3.0898,3.0836,3.0768,3.0878,3.0898,3.0898,3.0898,3.0898,3.0742,3.0059,2.9704,2.9304,2.8424,2.8173,2.7954,2.7269,2.7158,2.6998,2.6314,2.6071,2.5977,2.5977,2.582,2.5703,2.5703,2.5659,2.5628,2.5602,2.5554,2.5485,2.535,2.5348,2.5348,2.5348,2.5387,2.5415,2.5421,2.5463,2.5517,2.5529,2.5511,2.5511,2.5511,2.5511,2.5505,2.5491,2.5447,2.5511,2.5705,2.5636,2.6063,2.4265,2.4615,2.4775,2.4775,2.427,2.3122,2.057,0.0,0.0,1.3328,1.1536,1.0625,1.1348,1.168,1.2891,1.6172,0.0,1.9336,0.0,0.0,0.0,0.0,0.0,0.0,3.082,3.0898,3.0898,3.0898,3.0898,3.0898,3.0898,3.0898,3.0898,3.0898,3.0898,3.0898,3.0898,3.0898,3.0898,3.0898,3.0898,3.0898,3.0898,3.0898,3.0898,3.0898,3.0898,3.0898,3.0898,3.0898,3.0898,3.0898,3.0898,3.0898,3.0898,3.0898,3.0898,3.0898,3.0898,3.0898,3.0898,3.0898,3.0898,3.0879,3.0898,3.0898,3.0898,3.0898,3.0898,3.0879,3.0801,3.0195,2.9375,2.8496,2.8281,2.8261,2.8183,2.8164,2.8144,2.8066,2.7422,2.6875,2.6875,2.6211,2.5703,2.5703,2.5683,2.5662,2.5605,2.5599,2.5561,2.5501,2.5473,2.5473,2.5473,2.5498,2.5481,2.5481,2.5508,2.5535,2.5595,2.5597,2.5597,2.5597,2.5597,2.5559,2.5491,2.5484,2.5892,2.6675,2.6597,2.7036,2.3671,2.4403,2.493,2.493,2.4085,2.2735,2.0692,0.0,1.527,1.3275,1.1484,1.041,1.0742,1.125,1.2383,1.4746,1.543,1.6875,2.0352,0.0,0.0,0.0,2.7969,0.0,0.0,0.0,3.0898,3.0898,3.0898,3.0898,3.0898,3.0898,3.0898,3.0898,3.0898,3.0898,3.0898,3.0898,3.0898,3.0898,3.0898,3.0898,3.0898,3.0898,3.0898,3.0898,3.0898,3.0898,3.0898,3.0898,3.0898,3.0898,3.0898,3.0898,3.0898,3.0898,3.0898,3.0898,3.0898,3.0898,3.0898,3.0898,3.0898,3.0898,3.0898,3.0898,3.0898,3.0898,3.0898,3.0898,3.0898,3.0644,3.0293,2.9941,2.9863,2.9726,2.9199,2.9082,2.8926,2.8398,2.8027,2.7773,2.7773,2.748,2.7266,2.7266,2.7266,2.7265,2.7224,2.7223,2.7201,2.7194,2.6178,2.5491,2.5491,2.5543,2.5559,2.5559,2.5601,2.5633,2.566,2.566,2.566,2.566,2.566,2.5911,2.6392,2.6353,2.6791,2.7631,2.7573,2.7974,2.322,2.4315,2.5094,2.5094,2.398,2.2385,0.0,1.763,1.4845,1.291,1.1328,1.0293,1.0293,1.1016,1.207,1.3516,1.416,1.5703,1.9199,2.043,0.0,0.0,0.0,2.8594,3.0351,3.0742,3.0898,3.0898,3.0898,3.0898,3.0898,3.0898,3.0898,3.0898,3.0898,3.0898,3.0898,3.0898,3.0898,3.0898,3.0898,3.0898,3.0898,3.0898,3.0898,3.0898,3.0898,3.0898,3.0898,3.0898,3.0898,3.0898,3.0898,3.0898,3.0898,3.0898,3.0898,3.0898,3.0898,3.0898,3.0898,3.0898,3.0898,3.0898,3.0898,3.0898,3.0898,3.0898,3.0898,3.0898,3.0898,3.0898,3.0898,3.0898,3.0898,3.0723,3.0117,2.998,2.9805,2.9199,2.8867,2.8672,2.8672,2.8476,2.8301,2.8301,2.8301,2.8301,2.8301,2.8301,2.8301,2.8301,2.7113,2.6224,2.5969,2.5759,2.5633,2.5633,2.5662,2.582,2.6074,2.6074,2.6211,2.6465,2.6465,2.6777,2.7383,2.7339,2.7762,2.8603,2.8551,2.8904,2.3105,2.4533,2.5303,2.5303,2.4098,2.2246,0.0,1.7198,1.4689,1.2148,1.0918,1.0293,1.0293,1.1016,1.1895,1.2773,1.4297,1.6602,2.0098,2.1348,0.0,0.0,0.0,2.7695,2.9434,3.0391,3.0898,3.0898,3.0898,3.0898,3.0898,3.0898,3.0898,3.0898,3.0898,3.0898,3.0898,3.0898,3.0898,3.0898,3.0898,3.0898,3.0898,3.0898,3.0898,3.0898,3.0898,3.0898,3.0898,3.0898,3.0898,3.0898,3.0898,3.0898,3.0898,3.0898,3.0898,3.0898,3.0898,3.0898,3.0898,3.0898,3.0898,3.0898,3.0898,3.0898,3.0898,3.0898,3.0898,3.0898,3.0898,3.0898,3.0898,3.0898,3.0898,3.0898,3.0898,3.0898,3.0879,3.0879,3.0176,2.959,2.959,2.8867,2.8301,2.8301,2.8301,2.8301,2.8301,2.8301,2.8301,2.8301,2.8281,2.793,2.7051,2.6191,2.5703,2.5703,2.5703,2.6094,2.6953,2.6992,2.7383,2.8262,2.8262,2.8281,2.8281,2.8281,2.873,2.957,2.9517,2.9854,1.9253,2.0308,2.0862,2.0303,1.9823,1.8969,1.6966,1.5465,1.3963,1.1992,1.0918,1.0293,1.0293,1.0527,1.1562,1.418,1.5059,1.6621,2.0117,0.0,0.0,2.584,2.8203,2.9883,0.0,3.0742,3.0898,3.0898,3.0898,3.0898,3.0898,3.0898,3.0898,3.0898,3.0898,3.0898,3.0898,3.0898,3.0898,3.0898,3.0898,3.0898,3.0898,3.0898,3.0898,3.0898,3.0898,3.0898,3.0898,3.0898,3.0898,3.0898,3.0898,3.0898,3.0898,3.0898,3.0898,3.0898,3.0898,3.0898,3.0898,3.0898,3.0898,3.0898,3.0898,3.0898,3.0898,3.0898,3.0898,3.0898,3.0898,3.0898,3.0898,3.0898,3.0898,3.0898,3.0898,3.0898,3.0898,3.0898,3.0684,3.0488,3.0488,3.0254,3.0078,3.0078,3.0078,3.0078,3.0078,3.0078,3.0078,3.0078,2.9531,2.8848,2.7969,2.7637,2.748,2.748,2.748,2.7598,2.7871,2.7891,2.8027,2.8281,2.8301,2.8594,2.9199,2.9199,2.9648,3.0488,3.0331,3.0361,0.0,1.7875,1.8429,1.7926,1.7604,1.6957,1.5214,1.4209,1.3164,1.1465,1.0684,1.0293,1.0293,1.084,1.1973,1.4102,1.5254,1.6992,0.0,0.0,0.0,2.6406,0.0,0.0,3.041,3.0703,3.0898,3.0898,3.0898,3.0898,3.0898,3.0898,3.0898,3.0898,3.0898,3.0898,3.0898,3.0898,3.0898,3.0898,3.0898,3.0898,3.0898,3.0898,3.0898,3.0898,3.0898,3.0898,0.0,3.0898,3.0898,3.0898,3.0898,3.0898,3.0937,3.1269,3.1387,3.1387,3.1387,3.1387,3.1348,3.1016,3.0898,3.0898,3.0898,3.0898,3.0898,3.0898,3.0898,3.0898,3.0898,3.0898,3.0898,3.0898,3.0898,3.0898,3.0898,3.0898,3.0898,3.0898,3.0898,3.0898,3.0898,3.0898,3.0898,3.0898,3.0898,3.0898,3.0898,3.0898,3.0898,3.0898,3.041,2.9863,2.9336,2.8672,2.8301,2.8301,2.8301,2.8457,2.8789,2.8789,2.8945,2.9277,2.9277,2.9551,3.0098,3.0098,3.0371,3.0898,3.0725,3.0645,0.0,1.6689,1.7335,1.7277,1.6746,1.5807,1.4123,1.3253,0.0,1.0645,1.0293,1.0352,1.0547,1.1797,1.2949,1.3379,1.5371,0.0,0.0,2.2363,0.0,0.0,2.916,2.9687,2.9687,3.043,3.0898,3.0898,3.0898,3.0898,3.0898,3.0898,3.0898,3.0898,3.0898,3.0898,3.0898,3.0898,3.0898,3.0898,3.0898,3.0898,3.0898,3.0898,3.0898,3.0898,3.0898,3.0937,3.0996,3.0996,3.1035,3.1074,3.1074,3.1074,3.1172,3.1992,3.2285,3.2285,3.2285,3.2285,3.2148,3.1348,3.1074,3.1074,3.1074,3.0996,3.0898,3.0898,3.0898,3.0898,3.0898,3.0898,3.0898,3.0898,3.0898,3.0898,3.0898,3.0898,3.0898,3.0898,3.0898,3.0898,3.0898,3.0898,3.0898,3.0898,3.0898,3.0898,3.0898,3.0898,3.0898,3.0898,3.0898,3.0898,3.0898,2.9414,2.8476,2.8476,2.8476,2.8848,2.9668,2.9687,3.0078,3.0879,3.0898,3.0898,3.0898,3.0898,3.0898,3.0898,3.0826,3.0792,1.1473,0.0,1.2811,1.2157,1.2371,1.2497,0.0,1.1542,1.1602,0.0,0.0,1.0898,1.2852,1.248,1.3418,1.8047,0.0,0.0,2.3047,0.0,0.0,2.9121,3.0059,3.0586,3.0586,3.0781,3.0898,3.0898,3.0898,3.0898,3.0898,3.0898,3.0898,3.0898,3.0898,3.0898,3.0898,3.0898,3.0898,3.0898,3.0898,3.0898,3.0898,3.0898,3.0898,3.0898,3.0898,3.1289,3.1894,3.1894,3.2266,3.2812,3.2812,3.2812,3.2832,3.3047,3.3125,3.3125,3.3125,3.3125,3.3086,3.2871,3.2812,3.2812,3.2812,3.1914,3.0898,3.0898,3.0898,3.0898,3.0898,3.0898,3.0898,3.0898,3.0898,3.0898,3.0898,3.0898,3.0898,3.0898,3.0898,3.0898,3.0898,3.0898,3.0898,3.0898,3.0898,3.0898,3.0898,3.0898,3.0898,3.0898,3.0898,3.0898,3.0898,3.0527,3.0293,3.0293,3.0293,3.0371,3.0586,3.0586,3.0684,3.0898,3.0898,3.0898,3.0898,3.0898,3.0898,3.0918,3.1452,3.1691,1.0252,1.1168,1.2026,1.156,1.1816,1.207,1.1602,0.0,0.0,0.0,0.0,0.0,1.2695,1.3496,0.0,0.0,1.9766,0.0,0.0,0.0,2.8769,3.0059,3.0605,3.0898,3.0898,3.0898,3.0898,3.0898,3.0898,3.0898,3.0898,3.0898,3.0898,3.0898,3.0898,3.0898,3.0898,3.0898,3.0898,3.0898,3.0898,3.1113,3.1484,3.1074,3.1113,3.1504,3.1504,3.1758,3.2226,3.2598,3.3008,3.3398,3.3398,3.3398,3.3457,3.3848,3.4004,3.4004,3.4004,3.373,3.3398,3.3398,3.3398,3.3398,3.3398,3.2773,3.1973,3.1601,3.1211,3.0898,3.0898,3.0898,3.0898,3.0898,3.0898,3.0898,3.0898,3.0898,3.0898,3.0898,3.0898,3.0898,3.0898,3.0898,3.0898,3.0898,3.0898,3.0898,3.0898,3.0898,3.0898,3.0898,3.0898,3.0898,3.0898,3.0898,3.0898,3.0898,3.0898,3.0898,3.0898,3.0898,3.0898,3.0898,3.0898,3.1094,3.1504,3.1504,3.1699,3.2051,3.2457,3.2648,1.0625,1.1953,1.3184,1.2793,1.2891,1.3047,1.293,0.0,0.0,0.0,0.0,0.0,0.0,1.4941,0.0,0.0,0.0,0.0,2.6758,2.7949,2.9101,3.0703,3.0898,3.0898,3.0898,3.0898,3.0898,3.0898,3.0898,3.0898,3.0898,3.0898,3.0898,3.0898,3.0898,3.0898,3.0898,3.0898,3.0898,3.0898,3.0898,3.1289,3.1973,3.1367,3.1504,3.2207,3.2324,3.2461,3.2637,3.332,3.3672,3.3809,3.3809,3.3809,3.3887,3.4629,3.4902,3.4902,3.4902,3.4414,3.3809,3.3809,3.3809,3.3809,3.3809,3.3691,3.3457,3.2773,3.1953,3.1289,3.1289,3.1289,3.1289,3.1289,3.1289,3.1289,3.1289,3.1289,3.1289,3.1289,3.1289,3.123,3.1113,3.1094,3.1055,3.0918,3.0898,3.0898,3.0898,3.0898,3.0898,3.0898,3.0898,3.0957,3.1094,3.1094,3.1152,3.1269,3.1035,3.0898,3.0898,3.0898,3.0957,3.1094,3.1094,3.1523,3.2383,3.2383,3.2734,3.3398,3.3535,3.3594,1.2109,1.373,1.4492,1.2344,1.2871,1.373,1.3066,0.0,0.0,0.0,0.0,0.0,0.0,1.7441,1.8769,0.0,0.0,2.582,0.0,0.0,2.9766,3.0781,3.0898,3.0898,3.0898,3.0898,3.0898,3.0898,3.0898,3.0898,3.0898,3.0898,3.0898,3.0898,3.0898,3.0898,3.0898,3.0898,3.0898,3.0898,3.0898,3.0976,3.1113,3.1738,3.207,3.2246,3.293,3.3633,3.4336,3.4453,3.4941,3.5605,3.5605,3.5605,3.5625,3.5742,3.5801,3.5801,3.5801,3.5703,3.5605,3.5605,3.5605,3.5605,3.5605,3.5098,3.4473,3.4355,3.3691,3.3027,3.3027,3.3027,3.3027,3.3027,3.3027,3.3027,3.3027,3.3027,3.3027,3.3027,3.3027,3.2793,3.2129,3.1992,3.1758,3.1016,3.0898,3.0898,3.0898,3.0898,3.0898,3.0898,3.0898,3.1191,3.1934,3.1992,3.2285,3.2969,3.168,3.0898,3.0898,3.0898,3.125,3.1992,3.1992,3.2402,3.3223,3.3223,3.3281,3.3418,3.416,3.4492,1.1289,1.3066,1.4414,1.3242,1.4941,1.6816,1.6445,0.0,0.0,0.0,0.0,0.0,0.0,0.0,2.1797,2.4766,0.0,2.7012,2.8769,2.9355,2.9922,3.0801,3.0898,3.0898,3.0898,3.0898,3.0898,3.0898,3.0898,3.0898,3.0898,3.0898,3.0898,3.0898,3.0898,3.0898,3.0898,3.1367,3.1367,3.0918,3.1387,3.1601,3.1621,3.2012,3.2441,3.2891,3.373,3.4336,3.4746,3.5215,3.5644,3.5996,3.5996,3.5996,3.5996,3.5996,3.5996,3.5996,3.5996,3.5996,3.5996,3.5996,3.5996,3.5996,3.5996,3.5723,3.5391,3.5391,3.4434,3.3398,3.3398,3.3398,3.3398,3.3398,3.3398,3.3398,3.3398,3.3398,3.3398,3.3398,3.3398,3.3281,3.291,3.2851,3.2715,3.2305,3.1875,3.1758,3.2187,3.1875,3.1777,3.2207,3.2246,3.2402,3.2812,3.2851,3.3008,3.3379,3.2676,3.2246,3.2246,3.2246,3.2441,3.2832,3.2851,3.3262,3.4101,3.4101,3.4336,3.4805,3.5215,3.5391,1.0801,1.2461,1.4199,1.4609,0.0,1.8809,1.9219,0.0,0.0,0.0,0.0,0.0,0.0,2.1875,0.0,2.6621,2.7168,2.7832,2.9375,2.9785,3.0156,3.082,3.0898,3.0898,3.0898,3.0898,3.0898,3.0898,3.0898,3.0898,3.0898,3.0898,3.0898,3.0898,3.0898,3.0898,3.0898,3.1758,3.1758,3.0918,3.1777,3.209,3.1914,3.2305,3.2812,3.3457,3.4531,3.5,3.5059,3.5723,3.5996,3.5996,3.5996,3.5996,3.5996,3.5996,3.5996,3.5996,3.5996,3.5996,3.5996,3.5996,3.5996,3.5996,3.5996,3.5996,3.5996,3.5996,3.5039,3.4004,3.4004,3.4004,3.4004,3.4004,3.4004,3.4004,3.4004,3.4004,3.4004,3.4004,3.4004,3.3945,3.373,3.3691,3.3633,3.3437,3.2871,3.2695,3.332,3.2851,3.2715,3.332,3.3398,3.3476,3.3691,3.3887,3.4004,3.4004,3.3633,3.3398,3.3398,3.3398,3.3496,3.3691,3.3691,3.4121,3.5,3.5,3.5351,3.5996,3.5996,3.5996,1.2266,1.3398,1.4492,1.6113,1.6699,0.0,1.8926,1.8633,0.0,2.0078,0.0,0.0,0.0,2.3144,2.4902,2.6719,2.7676,2.8535,2.9473,3.0293,3.082,3.0898,3.0898,3.0898,3.0898,3.0898,3.0898,3.0898,3.0898,3.0898,3.0898,3.0898,3.0898,3.0898,3.0898,3.0898,3.0898,3.1758,3.1758,3.0918,3.1777,3.1777,3.1055,3.2598,3.3359,3.3496,3.5176,3.5918,3.5918,3.5976,3.5996,3.5996,3.5996,3.5996,3.5996,3.5996,3.5996,3.5996,3.5996,3.5996,3.5996,3.5996,3.5996,3.5996,3.5996,3.5996,3.5996,3.5996,3.5918,3.5801,3.5801,3.5801,3.5801,3.5801,3.5801,3.5801,3.5801,3.5801,3.5801,3.5801,3.5801,3.5566,3.4746,3.4609,3.4336,3.3516,3.3359,3.332,3.3398,3.3359,3.334,3.3398,3.3398,3.373,3.4531,3.5351,3.5801,3.5801,3.4297,3.3398,3.3398,3.3398,3.3789,3.459,3.4609,3.5039,3.5918,3.5918,3.5937,3.5996,3.5996,3.5996,1.1094,1.3066,1.5078,1.5723,0.0,0.0,0.0,2.1465,2.2324,2.3516,2.4023,0.0,0.0,0.0,2.5781,2.7539,2.8086,2.8789,3.0215,3.0684,3.0898,3.0898,3.0898,3.0898,3.0898,3.0898,3.0898,3.0898,3.0898,3.0898,3.0898,3.0898,3.0898,3.0898,3.0898,3.0898,3.0898,3.1758,3.1758,3.0918,3.1777,3.1738,3.0957,3.2637,3.3398,3.3496,3.5234,3.5996,3.5996,3.5996,3.5996,3.5996,3.5996,3.5996,3.5996,3.5996,3.5996,3.5996,3.5996,3.5996,3.5996,3.5996,3.5996,3.5996,3.5996,3.5996,3.5996,3.5996,3.5996,3.5996,3.5996,3.5996,3.5996,3.5996,3.5996,3.5996,3.5996,3.5996,3.5996,3.5996,3.5996,3.5898,3.5566,3.5508,3.5391,3.5078,3.4551,3.4394,3.4941,3.4531,3.4414,3.4961,3.5019,3.5156,3.5488,3.5801,3.5996,3.5996,3.5371,3.5019,3.5019,3.5019,3.5176,3.5508,3.5508,3.5664,3.5996,3.5996,3.5996,3.5996,3.5996,3.5996,1.0703,1.2793,1.5117,0.0,0.0,0.0,0.0,2.3184,2.4336,2.5469,2.5703,0.0,2.5703,0.0,0.0,2.8027,2.8301,2.8906,3.0644,3.0898,3.0898,3.0898,3.0898,3.0898,3.0898,3.0898,3.0898,3.0898,3.0898,3.0898,3.0898,3.0898,3.0898,3.0898,3.0898,3.0898,3.0898,3.1484,3.1621,3.1328,3.1914,3.1894,3.1367,3.2754,3.3555,3.3887,3.5351,3.5996,3.5996,3.5996,3.5996,3.5996,3.5996,3.5996,3.5996,3.5996,3.5996,3.5996,3.5996,3.5996,3.5996,3.5996,3.5996,3.5996,3.5996,3.5996,3.5996,3.5996,3.5996,3.5996,3.5996,3.5996,3.5996,3.5996,3.5996,3.5996,3.5996,3.5996,3.5996,3.5996,3.5996,3.5996,3.5996,3.5996,3.5996,3.5996,3.5488,3.5332,3.5918,3.5488,3.5332,3.5937,3.5996,3.5996,3.5996,3.5996,3.5996,3.5996,3.5996,3.5996,3.5996,3.5996,3.5996,3.5996,3.5996,3.5996,3.5996,3.5996,3.5996,3.5996,3.5996,3.5996,1.1602,1.2832,1.4531,0.0,0.0,0.0,2.2539,2.3164,2.3672,2.5352,0.0,2.5703,2.5703,2.5703,0.0,2.8027,2.8301,2.8926,3.0664,3.0898,3.0898,3.0898,3.0898,3.0898,3.0898,3.0898,3.0898,3.0898,3.0898,3.0898,3.0898,3.0898,3.0898,3.0898,3.0898,3.0898,3.0898,3.0898,3.1348,3.2207,3.2207,3.2207,3.2246,3.3047,3.3887,3.4746,3.5625,3.5996,3.5996,3.5996,3.5996,3.5996,3.5996,3.5996,3.5996,3.5996,3.5996,3.5996,3.5996,3.5996,3.5996,3.5996,3.5996,3.5996,3.5996,3.5996,3.5996,3.5996,3.5996,3.5996,3.5996,3.5996,3.5996,3.5996,3.5996,3.5996,3.5996,3.5996,3.5996,3.5996,3.5996,3.5996,3.5996,3.5996,3.5996,3.5996,3.5996,3.5996,3.5996,3.5996,3.5996,3.5996,3.5996,3.5996,3.5996,3.5996,3.5996,3.5996,3.5996,3.5996,3.5996,3.5996,3.5996,3.5996,3.5996,3.5996,3.5996,3.5996,3.5996,3.5996,3.5996,3.5996,1.1602,1.3711,0.0,0.0,0.0,0.0,0.0,2.4023,0.0,0.0,2.5703,2.5703,2.5703,2.6191,2.6973,2.8125,2.8809,2.9609,3.0742,3.0898,3.0898,3.0898,3.0898,3.0898,3.0898,3.0898,3.0898,3.0898,3.0898,3.0898,3.0898,3.0898,3.0898,3.0898,3.0898,3.0898,3.0898,3.0898,3.1348,3.2207,3.2207,3.25,3.3066,3.3926,3.4453,3.4746,3.5625,3.5996,3.5996,3.5996,3.5996,3.5996,3.5996,3.5996,3.5996,3.5996,3.5996,3.5996,3.5996,3.5996,3.5996,3.5996,3.5996,3.5996,3.5996,3.5996,3.5996,3.5996,3.5996,3.5996,3.5996,3.5996,3.5996,3.5996,3.5996,3.5996,3.5996,3.5996,3.5996,3.5996,3.5996,3.5996,3.5996,3.5996,3.5996,3.5996,3.5996,3.5996,3.5996,3.5996,3.5996,3.5996,3.5996,3.5996,3.5996,3.5996,3.5996,3.5996,3.5996,3.5996,3.5996,3.5996,3.5996,3.5996,3.5996,3.5996,3.5996,3.5996,3.5996,3.5996,3.5996,3.5996,1.293,1.5117,0.0,1.916,2.1738,2.4062,2.4766,0.0,0.0,0.0,2.5703,2.5703,2.5703,2.6406,2.7285,2.8164,2.9023,2.9902,3.0781,3.0898,3.0898,3.0898,3.0898,3.0898,3.0898,3.0898,3.0898,3.0898,3.0898,3.0898,3.0898,3.0898,3.0898,3.0898,3.0898,3.0898,3.0898,3.0898,3.1504,3.2676,3.2676,3.3281,3.4434,3.4629,3.4883,3.5254,3.5762,3.5996,3.5996,3.5996,3.5996,3.5996,3.5996,3.5996,3.5996,3.5996,3.5996,3.5996,3.5996,3.5996,3.5996,3.5996,3.5996,3.5996,3.5996,3.5996,3.5996,3.5996,3.5996,3.5996,3.5996,3.5996,3.5996,3.5996,3.5996,3.5996,3.5996,3.5996,3.5996,3.5996,3.5996,3.5996,3.5996,3.5996,3.5996,3.5996,3.5996,3.5996,3.5996,3.5996,3.5996,3.5996,3.5996,3.5996,3.5996,3.5996,3.5996,3.5996,3.5996,3.5996,3.5996,3.5996,3.5996,3.5996,3.5996,3.5996,3.5996,3.5996,3.6172,3.6523,3.6523,3.6699,1.4844,0.0,0.0,2.125,2.2617,0.0,2.5332,2.5703,2.5703,2.5703,0.0,2.5703,2.5703,2.6406,2.7266,2.8047,2.8984,2.9883,3.0664,3.0859,3.0898,3.0898,3.0898,3.0898,3.0898,3.0898,3.0898,3.0898,3.0898,3.0898,3.0898,3.0898,3.0898,3.0898,3.0898,3.0898,3.0898,3.0898,3.1699,3.3281,3.3359,3.4277,3.5859,3.5137,3.5254,3.5996,3.5996,3.5996,3.5996,3.5996,3.5996,3.5996,3.5996,3.5996,3.5996,3.5996,3.5996,3.5996,3.5996,3.5996,3.5996,3.5996,3.5996,3.5996,3.5996,3.5996,3.5996,3.5996,3.5996,3.5996,3.5996,3.5996,3.5996,3.5996,3.5996,3.5996,3.5996,3.5996,3.5996,3.5996,3.5996,3.5996,3.5996,3.5996,3.5996,3.5996,3.5996,3.5996,3.5996,3.5996,3.5996,3.5996,3.5996,3.5996,3.5996,3.5996,3.5996,3.5996,3.5996,3.5996,3.5996,3.5996,3.5996,3.5996,3.5996,3.6035,3.6113,3.6113,3.6562,3.7422,3.7422,3.7832,1.4102,1.6152,0.0,0.0,2.3535,2.5234,2.5605,2.5703,2.5703,2.5703,2.5703,2.5703,2.5703,2.6406,2.7051,2.7246,2.8574,2.9668,2.9844,3.0469,3.0898,3.0898,3.0898,3.0898,3.0898,3.0898,3.0898,3.0898,3.0898,3.0898,3.0898,3.0898,3.0898,3.0898,3.0898,3.0898,3.0898,3.0898,3.1426,3.2461,3.3105,3.3945,3.5,3.5488,3.582,3.5996,3.5996,3.5996,3.5996,3.5996,3.5996,3.5996,3.5996,3.5996,3.5996,3.5996,3.5996,3.5996,3.5996,3.5996,3.5996,3.5996,3.5996,3.5996,3.5996,3.5996,3.5996,3.5996,3.5996,3.5996,3.5996,3.5996,3.5996,3.5996,3.5996,3.5996,3.5996,3.5996,3.5996,3.5996,3.5996,3.5996,3.5996,3.5996,3.5996,3.5996,3.5996,3.5996,3.5996,3.5996,3.5996,3.5996,3.5996,3.5996,3.5996,3.5996,3.5996,3.5996,3.5996,3.5996,3.5996,3.5996,3.5996,3.5996,3.5996,3.6348,3.7012,3.7012,3.7461,3.832,3.832,3.8418,0.0,0.0,0.0,2.2871,0.0,2.5703,2.5703,2.5703,2.5703,2.5703,2.5703,2.5703,2.5703,2.6406,2.6992,2.6992,2.8105,2.8984,2.8984,2.9726,3.0273,3.0273,3.0644,3.0898,3.0898,3.0898,3.0898,3.0898,3.0898,3.0898,3.0898,3.0898,3.0898,3.0898,3.0898,3.0898,3.0898,3.0898,3.1348,3.2207,3.2637,3.3476,3.4726,3.5605,3.5996,3.5996,3.5996,3.5996,3.5996,3.5996,3.5996,3.5996,3.5996,3.5996,3.5996,3.5996,3.5996,3.5996,3.5996,3.5996,3.5996,3.5996,3.5996,3.5996,3.5996,3.5996,3.5996,3.5996,3.5996,3.5996,3.5996,3.5996,3.5996,3.5996,3.5996,3.5996,3.5996,3.5996,3.5996,3.5996,3.5996,3.5996,3.5996,3.5996,3.5996,3.5996,3.5996,3.5996,3.5996,3.5996,3.5996,3.5996,3.5996,3.5996,3.5996,3.5996,3.5996,3.5996,3.5996,3.5996,3.5996,3.6797,3.7109,3.6816,3.6816,3.7187,3.793,3.793,3.8379,3.9219,3.9219,3.9453,0.0,0.0,0.0,2.4473,2.5586,0.0,2.5703,2.5703,2.5703,2.5703,2.5703,2.5703,2.5703,2.6289,2.6777,2.6777,2.7519,2.8086,2.8086,2.8828,2.9434,2.957,3.0234,3.0723,3.0898,3.0898,3.0898,3.0898,3.0898,3.0898,3.0898,3.0898,3.0898,3.0898,3.0898,3.0898,3.0898,3.0898,3.1269,3.1973,3.2266,3.3203,3.4726,3.5605,3.5996,3.5996,3.5996,3.5996,3.5996,3.5996,3.5996,3.5996,3.5996,3.5996,3.5996,3.5996,3.5996,3.5996,3.5996,3.5996,3.5996,3.5996,3.5996,3.5996,3.5996,3.5996,3.5996,3.5996,3.5996,3.5996,3.5996,3.5996,3.6035,3.6191,3.6211,3.6172,3.6035,3.5996,3.5996,3.5996,3.5996,3.5996,3.5996,3.5996,3.5996,3.5996,3.5996,3.5996,3.5996,3.5996,3.5996,3.5996,3.6543,3.6894,3.6894,3.6894,3.6894,3.6894,3.6894,3.6894,3.6894,3.8281,3.8809,3.8301,3.8008,3.8184,3.8828,3.8828,3.9277,4.0117,4.0117,4.0508,0.0,0.0,2.1094,0.0,2.5137,2.5703,0.0,0.0,2.5703,0.0,2.5703,2.5703,2.5703,2.5801,2.5879,2.5879,2.6602,2.7168,2.7168,2.793,2.875,2.9512,2.9707,3.0078,3.082,3.0898,3.0898,3.0898,3.0898,3.0898,3.0898,3.0898,3.0898,3.0898,3.0898,3.0898,3.0898,3.0898,3.0957,3.1094,3.2559,3.375,3.4726,3.5605,3.5996,3.5996,3.5996,3.5996,3.5996,3.5996,3.5996,3.5996,3.5996,3.5996,3.5996,3.5996,3.5996,3.5996,3.5996,3.5996,3.5996,3.5996,3.5996,3.5996,3.5996,3.5996,3.5996,3.5996,3.5996,3.5996,3.5996,3.5996,3.6191,3.6953,3.7129,3.6914,3.6152,3.5996,3.5996,3.5996,3.5996,3.5996,3.5996,3.5996,3.5996,3.5996,3.5996,3.5996,3.5996,3.5996,3.5996,3.5996,3.8691,4.0508,4.0508,4.0508,4.0508,4.0508,4.0508,4.0508,4.0508,4.0723,4.0801,4.0723,3.9258,3.8887,3.9726,3.9726,4.0176,4.1035,4.1035,4.1094,1.4258,1.7402,2.0605,0.0,2.4687,2.5098,2.5586,0.0,2.5703,2.5703,2.5703,2.5703,2.5703,2.5703,2.5703,2.5703,2.6016,2.6269,2.6269,2.7012,2.7715,2.8105,2.9004,2.9746,3.0137,3.0605,3.0898,3.0898,3.0898,3.0898,3.0898,3.0898,3.0898,3.0898,3.0898,3.0898,3.0898,3.0898,3.0898,3.0918,3.2598,3.3594,3.4023,3.5371,3.5996,3.5996,3.5996,3.5996,3.5996,3.5996,3.5996,3.5996,3.5996,3.5996,3.5996,3.5996,3.5996,3.5996,3.5996,3.5996,3.5996,3.5996,3.5996,3.5996,3.5996,3.5996,3.5996,3.5996,3.5996,3.6113,3.6601,3.6738,3.6855,3.7402,3.7773,3.8008,3.793,3.6894,3.5996,3.5996,3.5996,3.5996,3.5996,3.5996,3.5996,3.5996,3.5996,3.6719,3.8652,3.8906,3.8906,3.8906,4.0293,4.1191,4.1191,4.1191,4.1191,4.1191,4.1191,4.1191,4.1191,4.1191,4.1191,4.1191,4.0449,4.0254,4.0625,4.0625,4.082,4.1191,4.1191,4.1191,0.0,0.0,1.9082,2.2305,2.3594,2.4297,0.0,0.0,2.5703,2.5703,2.5703,2.5703,2.5703,2.5703,2.5703,2.5703,2.5703,2.5703,2.5703,2.6269,2.6758,2.6973,2.8144,2.9101,2.9551,3.0195,3.0664,3.0879,3.0898,3.0898,3.0898,3.0898,3.0898,3.0898,3.0898,3.0898,3.0898,3.0898,3.0898,3.0918,3.2598,3.3398,3.3457,3.5215,3.5996,3.5996,3.5996,3.5996,3.5996,3.5996,3.5996,3.5996,3.5996,3.5996,3.5996,3.5996,3.5996,3.5996,3.5996,3.5996,3.5996,3.5996,3.5996,3.5996,3.5996,3.5996,3.5996,3.5996,3.5996,3.6211,3.7168,3.7617,3.791,3.8184,3.8594,3.9023,3.9336,3.7969,3.6797,3.7246,3.7324,3.7324,3.7324,3.7324,3.7324,3.7324,3.7324,3.8262,4.0879,4.1191,4.1191,4.1191,4.1191,4.1191,4.1191,4.1191,4.1191,4.1191,4.1191,4.1191,4.1191,4.1191,4.1191,4.1191,4.1191,4.1191,4.1191,4.1191,4.1191,4.1191,4.1191,4.1191,0.0,1.4316,0.0,1.8906,0.0,0.0,0.0,0.0,2.5703,2.5703,2.5703,2.5703,2.5703,2.5703,2.5703,2.5703,2.5703,2.5703,2.5703,2.5742,2.6074,2.6894,2.707,2.7773,2.9434,2.9648,3.0019,3.084,3.0898,3.0898,3.0898,3.0898,3.0898,3.0898,3.0898,3.0898,3.0898,3.0898,3.0898,3.0918,3.2598,3.3398,3.3457,3.5215,3.5996,3.5996,3.5996,3.5996,3.5996,3.5996,3.5996,3.5996,3.5996,3.5996,3.5996,3.5996,3.5996,3.5996,3.5996,3.5996,3.5996,3.5996,3.5996,3.5996,3.5996,3.5996,3.5996,3.5996,3.5996,3.6269,3.7383,3.8476,3.9375,3.9707,3.9805,3.9746,3.9453,3.8906,3.8945,4.0605,4.0937,4.0937,4.0937,4.0937,4.0937,4.0937,4.0937,4.0996,4.1172,4.1191,4.1191,4.1191,4.1191,4.1191,4.1191,4.1191,4.1191,4.1191,4.1191,4.1191,4.1191,4.1191,4.1191,4.1191,4.1191,4.1191,4.1191,4.1191,4.1191,4.1191,4.1191,4.1191,0.0,0.0,0.0,1.6992,1.916,2.0898,2.1758,2.3477,2.4863,2.4863,2.5312,2.5703,2.5703,2.5703,2.5703,2.5703,2.5703,2.5703,2.5703,2.5703,2.582,2.6133,2.666,2.7246,2.7871,2.8945,2.9726,3.0039,3.0586,3.0898,3.0898,3.0898,3.0898,3.0898,3.0898,3.0898,3.0898,3.0898,3.0898,3.0918,3.207,3.2891,3.3437,3.4629,3.5469,3.5996,3.5996,3.5996,3.5996,3.5996,3.5996,3.5996,3.5996,3.5996,3.5996,3.5996,3.5996,3.5996,3.5996,3.5996,3.5996,3.5996,3.5996,3.5996,3.5996,3.5996,3.5996,3.5996,3.5996,3.6348,3.7871,3.8848,3.9629,4.0527,4.0723,4.0703,4.0586,4.0391,4.0449,4.1074,4.1191,4.1191,4.1191,4.1191,4.1191,4.1191,4.1191,4.1191,4.1191,4.1191,4.1191,4.1191,4.1191,4.1191,4.1191,4.1191,4.1191,4.1191,4.1191,4.1191,4.1191,4.1191,4.1191,4.1191,4.1191,4.1191,4.1191,4.1191,4.1191,4.1191,4.1191,4.1191,1.1612,0.0,0.0,0.0,0.0,1.8535,2.0566,2.2129,2.3379,2.4219,2.4863,2.5352,2.5644,2.5703,2.5703,2.5703,2.5703,2.5703,2.5703,2.5703,2.5703,2.5703,2.6211,2.668,2.6973,2.8047,2.8965,2.9551,3.0137,3.0586,3.0879,3.0898,3.0898,3.0898,3.0898,3.0898,3.0898,3.0898,3.0898,3.0918,3.1777,3.248,3.3047,3.418,3.5019,3.5586,3.5879,3.5996,3.5996,3.5996,3.5996,3.5996,3.5996,3.5996,3.5996,3.5996,3.5996,3.5996,3.5996,3.5996,3.5996,3.5996,3.5996,3.5996,3.5996,3.5996,3.5996,3.5996,3.6836,3.8008,3.918,3.9746,4.0215,4.1016,4.1191,4.1191,4.1191,4.1191,4.1191,4.1191,4.1191,4.1191,4.1191,4.1191,4.1191,4.1191,4.1191,4.1191,4.1191,4.1191,4.1191,4.1191,4.1191,4.1191,4.1191,4.1191,4.1191,4.1191,4.1191,4.1191,4.1191,4.1191,4.1191,4.1191,4.1191,4.1191,4.1191,4.1191,4.1191,4.1191,4.1191,4.1191,0.0,0.0,0.0,0.0,0.0,0.0,2.0664,2.1035,2.1191,2.373,2.4297,2.4609,2.5508,2.5684,2.5703,2.5703,2.5703,2.5703,2.5703,2.5703,2.5703,2.5703,2.5703,2.6035,2.6875,2.6973,2.7695,2.9394,2.9551,2.9941,3.082,3.0898,3.0898,3.0898,3.0898,3.0898,3.0898,3.0898,3.0898,3.0918,3.1758,3.2187,3.2266,3.3906,3.4687,3.4746,3.5625,3.5996,3.5996,3.5996,3.5996,3.5996,3.5996,3.5996,3.5996,3.5996,3.5996,3.5996,3.5996,3.5996,3.5996,3.5996,3.5996,3.5996,3.5996,3.5996,3.5996,3.5996,3.8516,4.1191,4.1191,4.1191,4.1191,4.1191,4.1191,4.1191,4.1191,4.1191,4.1191,4.1191,4.1191,4.1191,4.1191,4.1191,4.1191,4.1191,4.1191,4.1191,4.1191,4.1191,4.1191,4.1191,4.1191,4.1191,4.1191,4.1191,4.1191,4.1191,4.1191,4.1191,4.1191,4.1191,4.1191,4.1191,4.1191,4.1191,4.1191,4.1191,4.1191,4.1191,4.1191,4.1191,1.0368,0.0,0.0,0.0,0.0,0.0,1.5117,1.6621,1.834,2.0312,2.1719,2.3047,2.4492,2.5273,2.5703,2.5703,2.5703,2.5703,2.5703,2.5703,2.5703,2.5703,2.5703,2.5781,2.6035,2.6621,2.7207,2.7676,2.8301,2.9043,2.9902,3.0566,3.0898,3.0898,3.0898,3.0898,3.0898,3.0898,3.0898,3.0898,3.1133,3.1582,3.2246,3.3281,3.4101,3.4746,3.5625,3.5996,3.5996,3.5996,3.5996,3.5996,3.5996,3.5996,3.5996,3.5996,3.5996,3.5996,3.5996,3.5996,3.5996,3.5996,3.5996,3.5996,3.5996,3.5996,3.5996,3.5996,3.8516,4.1191,4.1191,4.1191,4.1191,4.1191,4.1191,4.1191,4.1191,4.1191,4.1191,4.1191,4.1191,4.1191,4.1191,4.1191,4.1191,4.1191,4.1191,4.1191,4.1191,4.1191,4.1191,4.1191,4.1191,4.1191,4.1191,4.1191,4.1191,4.1191,4.1191,4.1191,4.1191,4.1191,4.1191,4.1191,4.1191,4.1191,4.1191,4.1191,4.1191,4.1191,4.1191,4.1191,0.0,0.0,0.0,0.0,0.0,0.0,1.4587,1.5312,1.6328,1.8789,2.0391,2.1777,2.3105,2.4043,2.4727,2.5098,2.5156,2.5273,2.5644,2.5703,2.5703,2.5703,2.5703,2.5703,2.5703,2.6152,2.6602,2.6973,2.7461,2.8301,2.9531,3.043,3.0898,3.0898,3.0898,3.0898,3.0898,3.0898,3.0898,3.0898,3.0898,3.1172,3.1699,3.2519,3.3359,3.4219,3.5078,3.5664,3.5996,3.5996,3.5996,3.5996,3.5996,3.5996,3.5996,3.5996,3.5996,3.5996,3.5996,3.5996,3.5996,3.5996,3.5996,3.5996,3.5996,3.5996,3.5996,3.5996,3.8516,4.1191,4.1191,4.1191,4.1191,4.1191,4.1191,4.1191,4.1191,4.1191,4.1191,4.1191,4.1191,4.1191,4.1191,4.1191,4.1191,4.1191,4.1191,4.1191,4.1191,4.1191,4.1191,4.1191,4.1191,4.1191,4.1191,4.1191,4.1191,4.1191,4.1191,4.1191,4.1191,4.1191,4.1191,4.1191,4.1191,4.1191,4.1191,4.1191,4.1191,4.1191,4.1191,4.1191,0.0,0.0,0.0,0.0,1.3665,0.0,1.643,1.5581,1.4941,1.7969,1.9277,2.0195,2.1269,2.2129,2.2969,2.3848,2.4121,2.459,2.5566,2.5703,2.5703,2.5703,2.5703,2.5703,2.5703,2.5703,2.6016,2.6797,2.6953,2.7715,2.9375,3.0273,3.0801,3.0898,3.0898,3.0898,3.0898,3.0898,3.0898,3.0898,3.0898,3.0898,3.0937,3.1797,3.2637,3.3457,3.4316,3.5195,3.5996,3.5996,3.5996,3.5996,3.5996,3.5996,3.5996,3.5996,3.5996,3.5996,3.5996,3.5996,3.5996,3.5996,3.5996,3.5996,3.5996,3.5996,3.6035,3.623,3.8379,4.0703,4.1094,4.1191,4.1191,4.1191,4.1191,4.1191,4.1191,4.1191,4.1191,4.1191,4.1191,4.1191,4.1191,4.1191,4.1191,4.1191,4.1191,4.1191,4.1191,4.1191,4.1191,4.1191,4.1191,4.1191,4.1191,4.1191,4.1191,4.1191,4.1191,4.1191,4.1191,4.1191,4.1191,4.1191,4.1191,4.1191,4.1191,4.1191,4.1191,4.1191,4.1191,4.1191,1.4954,1.5736,1.6386,1.4672,0.0,0.0,1.333,1.3453,1.4103,1.414,1.4805,1.6055,1.834,1.9453,2.0332,2.1191,2.2461,2.3906,2.5488,2.5703,2.5703,2.5703,2.5703,2.5703,2.5703,2.5703,2.5762,2.5937,2.6602,2.7441,2.8496,2.9375,3.0176,3.0879,3.0898,3.0898,3.0898,3.0898,3.0898,3.0898,3.0898,3.0898,3.0937,3.1797,3.2637,3.3457,3.4316,3.5195,3.5996,3.5996,3.5996,3.5996,3.5996,3.5996,3.5996,3.5996,3.5996,3.5996,3.5996,3.5996,3.5996,3.5996,3.5996,3.5996,3.5996,3.5996,3.6289,3.7695,3.7578,3.7656,4.0469,4.1191,4.1191,4.1191,4.1191,4.1191,4.1191,4.1191,4.1191,4.1191,4.1191,4.1191,4.1191,4.1191,4.1191,4.1191,4.1191,4.1191,4.1191,4.1191,4.1191,4.1191,4.1191,4.1191,4.1191,4.1191,4.1191,4.1191,4.1191,4.1191,4.1191,4.1191,4.1191,4.1191,4.1191,4.1191,4.1191,4.1191,4.1191,4.1191,4.1191,4.1191,1.6792,1.708,1.7542,1.6691,0.0,0.0,0.0,1.4327,1.4318,1.5208,1.5055,1.5544,1.8164,1.8652,1.9082,2.0391,2.168,2.2812,2.3672,2.4902,2.5703,2.5703,2.5703,2.5703,2.5703,2.5703,2.5703,2.5703,2.6504,2.7187,2.7637,2.8887,2.9805,3.0234,3.0664,3.0898,3.0898,3.0898,3.0898,3.0898,3.0898,3.0898,3.0918,3.1348,3.2226,3.3418,3.3867,3.4785,3.5996,3.5996,3.5996,3.5996,3.5996,3.5996,3.5996,3.5996,3.5996,3.5996,3.5996,3.5996,3.5996,3.5996,3.5996,3.5996,3.5996,3.5996,3.6309,3.7754,3.8359,3.9004,4.0742,4.1191,4.1191,4.1191,4.1191,4.1191,4.1191,4.1191,4.1191,4.1191,4.1191,4.1191,4.1191,4.1191,4.1191,4.1191,4.1191,4.1191,4.1191,4.1191,4.1191,4.1191,4.1191,4.1191,4.1191,4.1191,4.1191,4.1191,4.1191,4.1191,4.1191,4.1191,4.1191,4.1191,4.1191,4.1191,4.1191,4.1191,4.1191,4.1191,4.1191,4.1191,0.0,0.0,1.895,0.0,0.0,1.6726,0.0,0.0,0.0,1.6808,1.6211,1.6082,1.8358,1.8086,1.8027,1.959,2.0723,2.1348,2.1172,2.3203,2.4785,2.4941,2.5098,2.5273,2.543,2.5293,2.5332,2.5664,2.6055,2.6484,2.6973,2.8496,2.9434,2.959,3.0449,3.0898,3.0898,3.0898,3.0898,3.0898,3.0898,3.0898,3.0898,3.0898,3.1738,3.3184,3.332,3.4297,3.5762,3.5937,3.5996,3.5996,3.5996,3.5996,3.5996,3.5996,3.5996,3.5996,3.5996,3.5996,3.5996,3.5996,3.5996,3.5996,3.5996,3.5996,3.6269,3.7519,3.9238,4.0781,4.1113,4.1191,4.1191,4.1191,4.1191,4.1191,4.1191,4.1191,4.1191,4.1191,4.1191,4.1191,4.1191,4.1191,4.1191,4.1191,4.1191,4.1191,4.1191,4.1191,4.1191,4.1191,4.1191,4.1191,4.1191,4.1191,4.1191,4.1191,4.1191,4.1191,4.1191,4.1191,4.1191,4.1191,4.1191,4.1191,4.1191,4.1191,4.1191,4.1211,4.1875,4.2187,0.0,0.0,0.0,0.0,2.0473,2.0623,1.5589,0.0,1.681,1.4851,0.0,1.5719,1.6719,0.0,0.0,1.6992,1.8516,1.9336,1.8555,2.0019,2.1465,2.2246,2.2969,2.3691,2.4473,2.3848,2.4043,2.5586,2.4414,2.4629,2.6875,2.793,2.8809,2.957,3.0449,3.0898,3.0898,3.0898,3.0898,3.0898,3.0898,3.0898,3.0898,3.0898,3.1426,3.2383,3.3086,3.3945,3.4902,3.5684,3.5996,3.5996,3.5996,3.5996,3.5996,3.5996,3.5996,3.5996,3.5996,3.5996,3.5996,3.5996,3.5996,3.5996,3.5996,3.5996,3.6348,3.8027,3.8691,3.9258,4.0801,4.1191,4.1191,4.1191,4.1191,4.1191,4.1191,4.1191,4.1191,4.1191,4.1191,4.1191,4.1191,4.1191,4.1191,4.1191,4.1191,4.1191,4.1191,4.1191,4.1191,4.1191,4.1191,4.1191,4.1191,4.1191,4.1191,4.1191,4.1191,4.1191,4.1191,4.1191,4.1191,4.1191,4.1191,4.1191,4.1191,4.1191,4.1191,4.1269,4.4316,4.5723,0.0,0.0,0.0,0.0,2.0527,1.9804,1.6823,1.6614,1.702,1.6965,0.0,0.0,0.0,0.0,0.0,0.0,1.8066,1.8066,1.6699,1.7559,1.9043,2.0918,2.0996,2.1445,2.2812,2.3086,2.3457,2.4141,2.3535,2.3828,2.541,2.6797,2.7949,2.8828,2.9687,3.0391,3.0898,3.0898,3.0898,3.0898,3.0898,3.0898,3.0898,3.0898,3.1387,3.2246,3.3047,3.3887,3.4766,3.5644,3.5996,3.5996,3.5996,3.5996,3.5996,3.5996,3.5996,3.5996,3.5996,3.5996,3.5996,3.5996,3.5996,3.5996,3.5996,3.6348,3.6934,3.7832,3.832,3.9004,4.0742,4.1191,4.1191,4.1191,4.1191,4.1191,4.1191,4.1191,4.1191,4.1191,4.1191,4.1191,4.1191,4.1191,4.1191,4.1191,4.1191,4.1191,4.1191,4.1191,4.1191,4.1191,4.1191,4.1191,4.1191,4.1191,4.1191,4.1191,4.1191,4.1191,4.1191,4.1191,4.1191,4.1191,4.1191,4.1191,4.1191,4.3183,4.416,4.4199,4.5625,4.6308,2.3485,2.3485,2.3101,2.1562,2.0254,1.895,1.7372,1.7103,1.7475,1.8501,1.8327,0.0,0.0,0.0,0.0,0.0,0.0,1.7379,1.5643,1.5741,1.6777,1.8926,1.9258,1.9805,2.1055,2.1543,2.2051,2.2715,2.2324,2.2734,2.4316,2.582,2.7148,2.8262,2.9141,3.0019,3.0898,3.0898,3.0898,3.0898,3.0898,3.0898,3.0898,3.0898,3.125,3.1894,3.2949,3.3769,3.4434,3.5547,3.5996,3.5996,3.5996,3.5996,3.5996,3.5996,3.5996,3.5996,3.5996,3.5996,3.5996,3.5996,3.5996,3.6035,3.6289,3.6621,3.7109,3.7949,3.8027,3.8398,4.0625,4.1191,4.1191,4.1191,4.1191,4.1191,4.1191,4.1191,4.1191,4.1191,4.1191,4.1191,4.1191,4.1191,4.1191,4.1191,4.1191,4.1191,4.1191,4.1191,4.1191,4.1191,4.1191,4.1191,4.1191,4.1191,4.1191,4.1191,4.1191,4.1191,4.1191,4.1191,4.1641,4.2578,4.2598,4.2598,4.2598,4.5098,4.6308,4.6308,4.6308,4.6308,2.5231,2.5231,2.4423,2.1154,2.0308,1.9385,1.6038,1.718,1.8703,1.7918,1.9722,2.1201,2.0451,0.0,0.0,0.0,0.0,0.0,0.0,1.4692,1.4522,1.5469,1.7773,1.9316,1.9375,1.8652,1.9219,2.1758,2.0371,2.0879,2.4219,2.5254,2.6523,2.8242,2.9141,3.0019,3.0898,3.0898,3.0898,3.0898,3.0898,3.0898,3.0898,3.0898,3.0918,3.1035,3.2676,3.3418,3.3574,3.5293,3.5996,3.5996,3.5996,3.5996,3.5996,3.5996,3.5996,3.5996,3.5996,3.5996,3.5996,3.5996,3.5996,3.6152,3.6992,3.6699,3.6504,3.8711,3.7773,3.6875,4.0312,4.1191,4.1191,4.1191,4.1191,4.1191,4.1191,4.1191,4.1191,4.1191,4.1191,4.1191,4.1191,4.1191,4.1191,4.1191,4.1191,4.1191,4.1191,4.1191,4.1191,4.1191,4.1191,4.1191,4.1191,4.1191,4.1191,4.1191,4.1191,4.1191,4.1191,4.1191,4.2754,4.6074,4.6133,4.6133,4.6133,4.625,4.6308,4.6308,4.6308,4.6308,2.5154,2.5308,2.4769,2.2504,2.1119,1.9692,1.7388,1.7968,1.8742,1.7872,1.9774,2.1333,2.0465,0.0,0.0,0.0,0.0,0.0,0.0,1.2938,1.2696,1.3571,1.5996,0.0,1.5977,1.7168,1.8379,1.9258,1.9844,2.1172,2.3477,2.4941,2.6504,2.8242,2.8594,2.9434,3.0898,3.0898,3.0898,3.0898,3.0898,3.0898,3.0898,3.0898,3.0898,3.0996,3.2676,3.3398,3.3535,3.5273,3.5996,3.5996,3.5996,3.5996,3.5996,3.5996,3.5996,3.5996,3.5996,3.5996,3.5996,3.5996,3.5996,3.6191,3.7246,3.7637,3.7871,3.8652,3.9141,3.9707,4.0898,4.1191,4.1191,4.1191,4.1191,4.1191,4.1191,4.1191,4.1191,4.1191,4.1191,4.1191,4.1191,4.1191,4.1191,4.1191,4.1191,4.1191,4.1191,4.1191,4.1191,4.1191,4.1191,4.1191,4.1191,4.1191,4.1191,4.1191,4.332,4.457,4.457,4.457,4.5117,4.6289,4.6308,4.6308,4.6308,4.6308,4.6308,4.6308,4.6308,4.6308,2.5154,2.5308,2.4904,2.3216,2.1985,2.0658,1.8623,1.9065,1.9642,1.8792,2.019,2.148,2.1248,0.0,0.0,0.0,0.0,0.0,0.0,1.2544,1.2386,1.2345,0.0,0.0,0.0,1.5801,1.6992,1.793,1.875,2.0371,2.3027,2.4199,2.5723,2.7773,2.8144,2.8984,3.043,3.0742,3.0898,3.0898,3.0898,3.0898,3.0898,3.0898,3.0898,3.0996,3.2676,3.3398,3.3535,3.5273,3.5996,3.5996,3.5996,3.5996,3.5996,3.5996,3.5996,3.5996,3.5996,3.5996,3.5996,3.5996,3.5996,3.625,3.7617,3.8281,3.873,3.9355,4.0332,4.1191,4.1191,4.1191,4.1191,4.1191,4.1191,4.1191,4.1191,4.1191,4.1191,4.1191,4.1191,4.1191,4.1191,4.1191,4.1191,4.1191,4.1191,4.1191,4.1191,4.1191,4.1191,4.1191,4.1191,4.1699,4.291,4.3008,4.3008,4.3008,4.5078,4.6308,4.6308,4.6308,4.6308,4.6308,4.6308,4.6308,4.6308,4.6308,4.6308,4.6308,4.6308,4.6308]}]]